SKY248 PHNL-RJAH

Flight info

Callsign SKY248
Flight time N/A
Altitude 30000
Route KEOLA3 SOK V15 CANON DCT 26N70 DCT 30N180W DCT 33E70 DCT 35E60 36E50 DCT 355718N1452828E DCT POROT DCT 355531N1422423E DCT MILIT LARIX
Aircraft B738/M-SDE2E3FGHIRWXY/LB1

Departure

Time N/A
Airport Daniel K. Inouye International Airport (PHNL)

Arrival

Time 2026-04-25 09:08
Airport Ibaraki Airport (RJAH)
Time Latitude Longitude Altitude Speed Heading
2026-04-25 00:09 23.65906 -164.48219 30139 ft 405 kts 298°
2026-04-25 00:10 23.68382 -164.53719 30135 ft 404 kts 298°
2026-04-25 00:10 23.70851 -164.59207 30133 ft 404 kts 298°
2026-04-25 00:11 23.73335 -164.64736 30140 ft 404 kts 298°
2026-04-25 00:11 23.75803 -164.70235 30134 ft 404 kts 298°
2026-04-25 00:12 23.78271 -164.75739 30135 ft 404 kts 298°
2026-04-25 00:12 23.80728 -164.81226 30140 ft 404 kts 298°
2026-04-25 00:13 23.83188 -164.86728 30135 ft 404 kts 298°
2026-04-25 00:13 23.85647 -164.92232 30137 ft 404 kts 298°
2026-04-25 00:14 23.88105 -164.97743 30143 ft 404 kts 298°
2026-04-25 00:14 23.90574 -165.03281 30145 ft 404 kts 298°
2026-04-25 00:15 23.93021 -165.08779 30140 ft 404 kts 298°
2026-04-25 00:15 23.95472 -165.14292 30140 ft 404 kts 298°
2026-04-25 00:16 23.97920 -165.19807 30145 ft 404 kts 298°
2026-04-25 00:16 24.00386 -165.25366 30143 ft 404 kts 298°
2026-04-25 00:17 24.02833 -165.30890 30133 ft 404 kts 298°
2026-04-25 00:17 24.05273 -165.36404 30139 ft 404 kts 298°
2026-04-25 00:18 24.07714 -165.41927 30145 ft 403 kts 298°
2026-04-25 00:18 24.10145 -165.47433 30145 ft 403 kts 298°
2026-04-25 00:19 24.12583 -165.52963 30138 ft 403 kts 298°
2026-04-25 00:19 24.15029 -165.58518 30140 ft 403 kts 298°
2026-04-25 00:20 24.17461 -165.64047 30146 ft 403 kts 298°
2026-04-25 00:20 24.19892 -165.69581 30143 ft 403 kts 298°
2026-04-25 00:21 24.22316 -165.75105 30144 ft 403 kts 298°
2026-04-25 00:21 24.24725 -165.80603 30144 ft 403 kts 298°
2026-04-25 00:22 24.27142 -165.86124 30147 ft 402 kts 298°
2026-04-25 00:22 24.29558 -165.91650 30150 ft 402 kts 298°
2026-04-25 00:23 24.31986 -165.97210 30148 ft 402 kts 298°
2026-04-25 00:23 24.34384 -166.02710 30145 ft 402 kts 298°
2026-04-25 00:24 24.36795 -166.08244 30148 ft 402 kts 298°
2026-04-25 00:24 24.39214 -166.13803 30143 ft 402 kts 298°
2026-04-25 00:25 24.41616 -166.19332 30148 ft 402 kts 298°
2026-04-25 00:25 24.44020 -166.24869 30147 ft 402 kts 298°
2026-04-25 00:26 24.46418 -166.30401 30152 ft 402 kts 298°
2026-04-25 00:26 24.48812 -166.35930 30150 ft 402 kts 298°
2026-04-25 00:27 24.51205 -166.41464 30149 ft 402 kts 298°
2026-04-25 00:27 24.53596 -166.47000 30153 ft 402 kts 297°
2026-04-25 00:28 24.55996 -166.52565 30147 ft 402 kts 297°
2026-04-25 00:28 24.58382 -166.58101 30149 ft 401 kts 297°
2026-04-25 00:29 24.60763 -166.63634 30148 ft 401 kts 297°
2026-04-25 00:29 24.63145 -166.69177 30149 ft 401 kts 297°
2026-04-25 00:30 24.65525 -166.74722 30147 ft 401 kts 297°
2026-04-25 00:30 24.67901 -166.80264 30154 ft 401 kts 297°
2026-04-25 00:31 24.70292 -166.85846 30148 ft 401 kts 297°
2026-04-25 00:31 24.72666 -166.91398 30150 ft 401 kts 297°
2026-04-25 00:32 24.75036 -166.96946 30151 ft 401 kts 297°
2026-04-25 00:32 24.77013 -167.01580 30151 ft 401 kts 297°
2026-04-25 00:33 24.79769 -167.08047 30150 ft 401 kts 297°
2026-04-25 00:33 24.82134 -167.13607 30151 ft 401 kts 297°
2026-04-25 00:34 24.84494 -167.19158 30151 ft 401 kts 297°
2026-04-25 00:34 24.86870 -167.24755 30152 ft 401 kts 297°
2026-04-25 00:35 24.89231 -167.30325 30150 ft 401 kts 297°
2026-04-25 00:35 24.91588 -167.35892 30151 ft 401 kts 297°
2026-04-25 00:36 24.93937 -167.41447 30153 ft 401 kts 297°
2026-04-25 00:36 24.96285 -167.47007 30154 ft 401 kts 297°
2026-04-25 00:37 24.98630 -167.52566 30156 ft 401 kts 297°
2026-04-25 00:37 25.00977 -167.58137 30155 ft 401 kts 297°
2026-04-25 00:38 25.02939 -167.62800 30153 ft 401 kts 297°
2026-04-25 00:38 25.05283 -167.68378 30154 ft 401 kts 297°
2026-04-25 00:39 25.07627 -167.73960 30156 ft 401 kts 297°
2026-04-25 00:39 25.10358 -167.80476 30153 ft 401 kts 297°
2026-04-25 00:40 25.12313 -167.85145 30155 ft 401 kts 297°
2026-04-25 00:40 25.14646 -167.90725 30151 ft 401 kts 297°
2026-04-25 00:41 25.16976 -167.96305 30156 ft 401 kts 297°
2026-04-25 00:41 25.19307 -168.01894 30153 ft 401 kts 297°
2026-04-25 00:42 25.21633 -168.07477 30154 ft 401 kts 297°
2026-04-25 00:42 25.23962 -168.13075 30155 ft 401 kts 297°
2026-04-25 00:43 25.26298 -168.18698 30158 ft 401 kts 297°
2026-04-25 00:43 25.28616 -168.24283 30157 ft 401 kts 296°
2026-04-25 00:44 25.30937 -168.29884 30150 ft 401 kts 296°
2026-04-25 00:44 25.33253 -168.35481 30157 ft 401 kts 297°
2026-04-25 00:45 25.35563 -168.41068 30153 ft 400 kts 296°
2026-04-25 00:45 25.37872 -168.46663 30156 ft 400 kts 296°
2026-04-25 00:46 25.40178 -168.52257 30154 ft 400 kts 296°
2026-04-25 00:47 25.43642 -168.60670 30156 ft 400 kts 296°
2026-04-25 00:47 25.45939 -168.66260 30157 ft 400 kts 296°
2026-04-25 00:48 25.48238 -168.71863 30154 ft 400 kts 296°
2026-04-25 00:48 25.50531 -168.77458 30156 ft 400 kts 296°
2026-04-25 00:49 25.52839 -168.83096 30153 ft 400 kts 296°
2026-04-25 00:49 25.55125 -168.88690 30160 ft 400 kts 296°
2026-04-25 00:50 25.57411 -168.94290 30154 ft 400 kts 296°
2026-04-25 00:50 25.59693 -168.99888 30157 ft 400 kts 296°
2026-04-25 00:51 25.61986 -169.05518 30157 ft 399 kts 296°
2026-04-25 00:51 25.64267 -169.11128 30162 ft 399 kts 296°
2026-04-25 00:52 25.66545 -169.16737 30159 ft 399 kts 296°
2026-04-25 00:52 25.68823 -169.22353 30161 ft 399 kts 296°
2026-04-25 00:53 25.71094 -169.27962 30166 ft 399 kts 296°
2026-04-25 00:53 25.73361 -169.33565 30160 ft 399 kts 296°
2026-04-25 00:54 25.75627 -169.39177 30165 ft 399 kts 296°
2026-04-25 00:54 25.77888 -169.44780 30158 ft 399 kts 296°
2026-04-25 00:55 25.80162 -169.50427 30156 ft 399 kts 296°
2026-04-25 00:55 25.82421 -169.56040 30160 ft 398 kts 296°
2026-04-25 00:56 25.84664 -169.61623 30164 ft 398 kts 296°
2026-04-25 00:56 25.86929 -169.67269 30159 ft 398 kts 296°
2026-04-25 00:57 25.89175 -169.72874 30155 ft 398 kts 295°
2026-04-25 00:57 25.91421 -169.78486 30159 ft 398 kts 296°
2026-04-25 00:58 25.93668 -169.84109 30162 ft 398 kts 295°
2026-04-25 00:58 25.95912 -169.89734 30161 ft 398 kts 295°
2026-04-25 00:59 25.98153 -169.95355 30158 ft 399 kts 295°
2026-04-25 00:59 26.00399 -170.00980 30164 ft 398 kts 296°
2026-04-25 01:00 26.02851 -170.06522 30168 ft 398 kts 298°
2026-04-25 01:00 26.05358 -170.11981 30165 ft 397 kts 298°
2026-04-25 01:01 26.07855 -170.17461 30161 ft 397 kts 298°
2026-04-25 01:01 26.10345 -170.22976 30174 ft 397 kts 298°
2026-04-25 01:02 26.12812 -170.28466 30171 ft 397 kts 298°
2026-04-25 01:02 26.15271 -170.33954 30166 ft 397 kts 298°
2026-04-25 01:03 26.17683 -170.39341 30169 ft 397 kts 298°
2026-04-25 01:03 26.20133 -170.44823 30170 ft 397 kts 298°
2026-04-25 01:04 26.22604 -170.50358 30172 ft 397 kts 298°
2026-04-25 01:04 26.25055 -170.55856 30172 ft 396 kts 298°
2026-04-25 01:05 26.27501 -170.61347 30170 ft 396 kts 298°
2026-04-25 01:05 26.29945 -170.66843 30173 ft 396 kts 298°
2026-04-25 01:06 26.32387 -170.72343 30169 ft 396 kts 298°
2026-04-25 01:06 26.34830 -170.77850 30169 ft 396 kts 298°
2026-04-25 01:07 26.37268 -170.83351 30165 ft 396 kts 298°
2026-04-25 01:07 26.39698 -170.88842 30166 ft 396 kts 298°
2026-04-25 01:08 26.42143 -170.94374 30177 ft 396 kts 298°
2026-04-25 01:08 26.44573 -170.99881 30176 ft 396 kts 297°
2026-04-25 01:09 26.46998 -171.05383 30179 ft 396 kts 297°
2026-04-25 01:09 26.49420 -171.10886 30177 ft 396 kts 297°
2026-04-25 01:10 26.51851 -171.16413 30176 ft 395 kts 297°
2026-04-25 01:10 26.54260 -171.21900 30179 ft 395 kts 297°
2026-04-25 01:11 26.56685 -171.27433 30180 ft 395 kts 297°
2026-04-25 01:11 26.59085 -171.32913 30180 ft 395 kts 297°
2026-04-25 01:12 26.61509 -171.38453 30178 ft 395 kts 297°
2026-04-25 01:12 26.63915 -171.43962 30179 ft 395 kts 297°
2026-04-25 01:13 26.66318 -171.49471 30179 ft 395 kts 297°
2026-04-25 01:13 26.68722 -171.54990 30178 ft 395 kts 297°
2026-04-25 01:14 26.71139 -171.60548 30181 ft 395 kts 297°
2026-04-25 01:14 26.73538 -171.66069 30183 ft 395 kts 297°
2026-04-25 01:15 26.75935 -171.71592 30183 ft 395 kts 297°
2026-04-25 01:15 26.78331 -171.77120 30183 ft 395 kts 297°
2026-04-25 01:16 26.80725 -171.82654 30182 ft 395 kts 297°
2026-04-25 01:16 26.83118 -171.88187 30183 ft 395 kts 297°
2026-04-25 01:17 26.85507 -171.93723 30181 ft 395 kts 297°
2026-04-25 01:17 26.87888 -171.99247 30187 ft 395 kts 297°
2026-04-25 01:18 26.90285 -172.04813 30186 ft 395 kts 297°
2026-04-25 01:18 26.92664 -172.10349 30184 ft 395 kts 297°
2026-04-25 01:19 26.95045 -172.15895 30185 ft 395 kts 297°
2026-04-25 01:19 26.97419 -172.21432 30187 ft 395 kts 297°
2026-04-25 01:20 26.99798 -172.26986 30185 ft 395 kts 297°
2026-04-25 01:20 27.02172 -172.32534 30183 ft 395 kts 297°
2026-04-25 01:21 27.04544 -172.38089 30180 ft 396 kts 296°
2026-04-25 01:21 27.06915 -172.43649 30190 ft 396 kts 297°
2026-04-25 01:22 27.09286 -172.49217 30189 ft 396 kts 297°
2026-04-25 01:22 27.11668 -172.54812 30187 ft 396 kts 297°
2026-04-25 01:23 27.14029 -172.60370 30188 ft 395 kts 297°
2026-04-25 01:23 27.16395 -172.65950 30193 ft 395 kts 297°
2026-04-25 01:24 27.18749 -172.71511 30196 ft 395 kts 296°
2026-04-25 01:24 27.21106 -172.77082 30190 ft 395 kts 297°
2026-04-25 01:25 27.23458 -172.82648 30191 ft 395 kts 297°
2026-04-25 01:25 27.25812 -172.88227 30193 ft 395 kts 297°
2026-04-25 01:26 27.28165 -172.93813 30192 ft 395 kts 296°
2026-04-25 01:26 27.30510 -172.99386 30190 ft 395 kts 296°
2026-04-25 01:27 27.32852 -173.04960 30189 ft 395 kts 296°
2026-04-25 01:27 27.35197 -173.10550 30189 ft 395 kts 296°
2026-04-25 01:28 27.38710 -173.18935 30186 ft 395 kts 296°
2026-04-25 01:28 27.41041 -173.24510 30187 ft 395 kts 296°
2026-04-25 01:29 27.43373 -173.30096 30191 ft 395 kts 296°
2026-04-25 01:29 27.45702 -173.35679 30188 ft 394 kts 296°
2026-04-25 01:30 27.48030 -173.41269 30189 ft 394 kts 296°
2026-04-25 01:30 27.50352 -173.46853 30191 ft 394 kts 296°
2026-04-25 01:31 27.52672 -173.52439 30183 ft 394 kts 296°
2026-04-25 01:31 27.54996 -173.58042 30195 ft 394 kts 296°
2026-04-25 01:32 27.57309 -173.63627 30191 ft 394 kts 296°
2026-04-25 01:32 27.59242 -173.68301 30191 ft 394 kts 296°
2026-04-25 01:33 27.61928 -173.74804 30193 ft 393 kts 296°
2026-04-25 01:33 27.63853 -173.79472 30189 ft 393 kts 296°
2026-04-25 01:34 27.66152 -173.85054 30186 ft 393 kts 296°
2026-04-25 01:34 27.68465 -173.90675 30188 ft 393 kts 296°
2026-04-25 01:35 27.70768 -173.96283 30187 ft 393 kts 296°
2026-04-25 01:35 27.73062 -174.01875 30188 ft 393 kts 296°
2026-04-25 01:36 27.75353 -174.07468 30190 ft 393 kts 296°
2026-04-25 01:36 27.77644 -174.13070 30185 ft 393 kts 296°
2026-04-25 01:37 27.79934 -174.18674 30185 ft 393 kts 296°
2026-04-25 01:37 27.82205 -174.24242 30183 ft 393 kts 296°
2026-04-25 01:38 27.84496 -174.29868 30190 ft 393 kts 296°
2026-04-25 01:38 27.86778 -174.35475 30189 ft 393 kts 296°
2026-04-25 01:39 27.89053 -174.41077 30190 ft 393 kts 296°
2026-04-25 01:39 27.91326 -174.46680 30192 ft 393 kts 295°
2026-04-25 01:40 27.93594 -174.52281 30190 ft 393 kts 295°
2026-04-25 01:40 27.95863 -174.57890 30188 ft 392 kts 295°
2026-04-25 01:41 27.98131 -174.63506 30185 ft 392 kts 295°
2026-04-25 01:41 28.00404 -174.69143 30187 ft 392 kts 295°
2026-04-25 01:42 28.02658 -174.74739 30188 ft 392 kts 295°
2026-04-25 01:42 28.04910 -174.80339 30186 ft 391 kts 295°
2026-04-25 01:43 28.07155 -174.85930 30185 ft 391 kts 295°
2026-04-25 01:43 28.09398 -174.91524 30189 ft 390 kts 295°
2026-04-25 01:44 28.11649 -174.97144 30185 ft 390 kts 295°
2026-04-25 01:44 28.13883 -175.02732 30186 ft 390 kts 295°
2026-04-25 01:45 28.16113 -175.08316 30186 ft 389 kts 295°
2026-04-25 01:45 28.18337 -175.13893 30181 ft 389 kts 295°
2026-04-25 01:46 28.20570 -175.19502 30185 ft 389 kts 295°
2026-04-25 01:46 28.22777 -175.25053 30186 ft 389 kts 295°
2026-04-25 01:47 28.25001 -175.30656 30188 ft 389 kts 295°
2026-04-25 01:47 28.27216 -175.36243 30186 ft 388 kts 295°
2026-04-25 01:48 28.29423 -175.41818 30186 ft 388 kts 294°
2026-04-25 01:48 28.31628 -175.47396 30187 ft 388 kts 294°
2026-04-25 01:49 28.33833 -175.52983 30191 ft 388 kts 294°
2026-04-25 01:49 28.36045 -175.58594 30189 ft 388 kts 294°
2026-04-25 01:50 28.38239 -175.64170 30187 ft 387 kts 294°
2026-04-25 01:50 28.40428 -175.69739 30190 ft 387 kts 294°
2026-04-25 01:51 28.42621 -175.75328 30185 ft 387 kts 294°
2026-04-25 01:51 28.44806 -175.80903 30189 ft 387 kts 294°
2026-04-25 01:52 28.46989 -175.86483 30191 ft 387 kts 294°
2026-04-25 01:52 28.49172 -175.92068 30190 ft 386 kts 294°
2026-04-25 01:53 28.51352 -175.97656 30194 ft 386 kts 294°
2026-04-25 01:53 28.53520 -176.03221 30193 ft 386 kts 294°
2026-04-25 01:54 28.55686 -176.08789 30192 ft 386 kts 294°
2026-04-25 01:54 28.57849 -176.14357 30192 ft 385 kts 294°
2026-04-25 01:55 28.60010 -176.19929 30192 ft 385 kts 294°
2026-04-25 01:55 28.62164 -176.25490 30200 ft 384 kts 294°
2026-04-25 01:56 28.64319 -176.31062 30189 ft 384 kts 294°
2026-04-25 01:56 28.66468 -176.36628 30191 ft 384 kts 294°
2026-04-25 01:57 28.69686 -176.44976 30196 ft 383 kts 294°
2026-04-25 01:58 28.71820 -176.50521 30195 ft 383 kts 294°
2026-04-25 01:58 28.73954 -176.56076 30200 ft 383 kts 294°
2026-04-25 01:59 28.76088 -176.61638 30195 ft 383 kts 294°
2026-04-25 01:59 28.78215 -176.67191 30197 ft 383 kts 294°
2026-04-25 02:00 28.80344 -176.72757 30198 ft 383 kts 294°
2026-04-25 02:00 28.82471 -176.78327 30201 ft 383 kts 294°
2026-04-25 02:01 28.84597 -176.83900 30196 ft 383 kts 294°
2026-04-25 02:01 28.86716 -176.89466 30200 ft 383 kts 294°
2026-04-25 02:02 28.88832 -176.95029 30195 ft 383 kts 294°
2026-04-25 02:02 28.90944 -177.00592 30198 ft 382 kts 294°
2026-04-25 02:03 28.93053 -177.06154 30200 ft 382 kts 294°
2026-04-25 02:03 28.95157 -177.11714 30198 ft 382 kts 294°
2026-04-25 02:04 28.97260 -177.17277 30200 ft 382 kts 294°
2026-04-25 02:04 28.99359 -177.22838 30205 ft 381 kts 294°
2026-04-25 02:05 29.01466 -177.28431 30198 ft 382 kts 294°
2026-04-25 02:05 29.03561 -177.33998 30205 ft 382 kts 294°
2026-04-25 02:06 29.05656 -177.39574 30199 ft 382 kts 294°
2026-04-25 02:06 29.07750 -177.45156 30200 ft 383 kts 294°
2026-04-25 02:07 29.09833 -177.50717 30202 ft 383 kts 294°
2026-04-25 02:07 29.11927 -177.56314 30203 ft 383 kts 294°
2026-04-25 02:08 29.14018 -177.61914 30204 ft 383 kts 294°
2026-04-25 02:08 29.16108 -177.67520 30202 ft 383 kts 294°
2026-04-25 02:09 29.18197 -177.73130 30200 ft 384 kts 294°
2026-04-25 02:09 29.20297 -177.78778 30201 ft 383 kts 294°
2026-04-25 02:10 29.22378 -177.84384 30199 ft 383 kts 294°
2026-04-25 02:10 29.24455 -177.89990 30205 ft 383 kts 294°
2026-04-25 02:11 29.26529 -177.95595 30206 ft 382 kts 294°
2026-04-25 02:11 29.28598 -178.01193 30205 ft 382 kts 294°
2026-04-25 02:12 29.30664 -178.06795 30205 ft 382 kts 293°
2026-04-25 02:12 29.32732 -178.12408 30213 ft 382 kts 293°
2026-04-25 02:13 29.34786 -178.17995 30213 ft 382 kts 293°
2026-04-25 02:13 29.36854 -178.23626 30213 ft 382 kts 293°
2026-04-25 02:14 29.38905 -178.29220 30206 ft 381 kts 293°
2026-04-25 02:14 29.40954 -178.34818 30210 ft 381 kts 293°
2026-04-25 02:15 29.43003 -178.40422 30212 ft 381 kts 293°
2026-04-25 02:15 29.45046 -178.46022 30209 ft 380 kts 293°
2026-04-25 02:16 29.47083 -178.51610 30209 ft 380 kts 293°
2026-04-25 02:16 29.49115 -178.57196 30210 ft 380 kts 294°
2026-04-25 02:17 29.51142 -178.62776 30207 ft 379 kts 294°
2026-04-25 02:17 29.53177 -178.68389 30210 ft 379 kts 294°
2026-04-25 02:18 29.55197 -178.73967 30207 ft 379 kts 294°
2026-04-25 02:18 29.57211 -178.79536 30208 ft 378 kts 294°
2026-04-25 02:19 29.59222 -178.85107 30204 ft 378 kts 294°
2026-04-25 02:19 29.61230 -178.90677 30209 ft 378 kts 294°
2026-04-25 02:20 29.63234 -178.96247 30211 ft 378 kts 294°
2026-04-25 02:20 29.65250 -179.01856 30212 ft 377 kts 294°
2026-04-25 02:21 29.67247 -179.07423 30209 ft 378 kts 294°
2026-04-25 02:21 29.69240 -179.12988 30214 ft 378 kts 294°
2026-04-25 02:22 29.71234 -179.18562 30211 ft 378 kts 294°
2026-04-25 02:22 29.73230 -179.24152 30210 ft 378 kts 294°
2026-04-25 02:23 29.75223 -179.29741 30211 ft 378 kts 294°
2026-04-25 02:23 29.77213 -179.35333 30213 ft 378 kts 294°
2026-04-25 02:24 29.79214 -179.40963 30208 ft 379 kts 294°
2026-04-25 02:24 29.81209 -179.46587 30213 ft 380 kts 294°
2026-04-25 02:25 29.83201 -179.52209 30202 ft 380 kts 294°
2026-04-25 02:25 29.85194 -179.57845 30209 ft 380 kts 294°
2026-04-25 02:26 29.87189 -179.63494 30206 ft 381 kts 294°
2026-04-25 02:26 29.89181 -179.69144 30204 ft 381 kts 294°
2026-04-25 02:27 29.91170 -179.74797 30204 ft 382 kts 294°
2026-04-25 02:27 29.93162 -179.80467 30204 ft 382 kts 294°
2026-04-25 02:28 29.95152 -179.86140 30207 ft 382 kts 294°
2026-04-25 02:28 29.97144 -179.91828 30202 ft 383 kts 294°
2026-04-25 02:29 29.98796 -179.96550 30206 ft 383 kts 294°
2026-04-25 02:29 30.00787 179.97751 30208 ft 383 kts 294°
2026-04-25 02:30 30.02787 179.92017 30210 ft 384 kts 294°
2026-04-25 02:30 30.04776 179.86302 30210 ft 384 kts 294°
2026-04-25 02:31 30.06763 179.80585 30208 ft 384 kts 294°
2026-04-25 02:31 30.08751 179.74853 30207 ft 385 kts 294°
2026-04-25 02:32 30.10736 179.69122 30212 ft 385 kts 294°
2026-04-25 02:32 30.12718 179.63386 30209 ft 385 kts 294°
2026-04-25 02:33 30.14701 179.57643 30210 ft 385 kts 294°
2026-04-25 02:33 30.16678 179.51904 30210 ft 385 kts 294°
2026-04-25 02:34 30.18655 179.46159 30210 ft 386 kts 294°
2026-04-25 02:34 30.20630 179.40408 30207 ft 386 kts 294°
2026-04-25 02:35 30.22608 179.34638 30210 ft 386 kts 294°
2026-04-25 02:35 30.24583 179.28869 30210 ft 386 kts 294°
2026-04-25 02:36 30.26550 179.23111 30209 ft 386 kts 294°
2026-04-25 02:36 30.28529 179.17310 30208 ft 385 kts 294°
2026-04-25 02:37 30.30490 179.11553 30208 ft 385 kts 294°
2026-04-25 02:37 30.32449 179.05789 30206 ft 385 kts 294°
2026-04-25 02:38 30.34406 179.00023 30211 ft 385 kts 294°
2026-04-25 02:38 30.36360 178.94256 30209 ft 385 kts 294°
2026-04-25 02:39 30.38310 178.88493 30212 ft 384 kts 294°
2026-04-25 02:39 30.40254 178.82734 30204 ft 384 kts 294°
2026-04-25 02:40 30.42191 178.76990 30208 ft 384 kts 294°
2026-04-25 02:40 30.44130 178.71228 30212 ft 383 kts 294°
2026-04-25 02:41 30.46063 178.65475 30213 ft 383 kts 294°
2026-04-25 02:41 30.47986 178.59740 30211 ft 382 kts 293°
2026-04-25 02:42 30.49916 178.53975 30212 ft 382 kts 293°
2026-04-25 02:42 30.51833 178.48242 30210 ft 382 kts 293°
2026-04-25 02:43 30.53747 178.42504 30208 ft 382 kts 293°
2026-04-25 02:43 30.55659 178.36766 30205 ft 381 kts 293°
2026-04-25 02:44 30.57561 178.31047 30208 ft 381 kts 293°
2026-04-25 02:44 30.59462 178.25318 30205 ft 380 kts 293°
2026-04-25 02:45 30.61359 178.19594 30205 ft 380 kts 293°
2026-04-25 02:45 30.63263 178.13840 30202 ft 380 kts 293°
2026-04-25 02:46 30.65140 178.08157 30198 ft 380 kts 293°
2026-04-25 02:46 30.67035 178.02411 30203 ft 379 kts 293°
2026-04-25 02:47 30.68915 177.96698 30205 ft 379 kts 293°
2026-04-25 02:47 30.70787 177.91001 30206 ft 379 kts 293°
2026-04-25 02:48 30.72661 177.85287 30204 ft 379 kts 293°
2026-04-25 02:48 30.74545 177.79535 30200 ft 379 kts 292°
2026-04-25 02:49 30.76410 177.73829 30202 ft 379 kts 292°
2026-04-25 02:49 30.78274 177.68117 30201 ft 379 kts 292°
2026-04-25 02:50 30.80138 177.62393 30202 ft 379 kts 292°
2026-04-25 02:50 30.81996 177.56679 30201 ft 378 kts 292°
2026-04-25 02:51 30.83855 177.50953 30201 ft 378 kts 292°
2026-04-25 02:51 30.85719 177.45201 30202 ft 378 kts 292°
2026-04-25 02:52 30.87567 177.39488 30200 ft 378 kts 292°
2026-04-25 02:52 30.89414 177.33769 30202 ft 378 kts 292°
2026-04-25 02:53 30.91258 177.28048 30199 ft 378 kts 292°
2026-04-25 02:53 30.93100 177.22325 30197 ft 378 kts 292°
2026-04-25 02:54 30.94948 177.16573 30196 ft 378 kts 292°
2026-04-25 02:54 30.96787 177.10836 30202 ft 378 kts 292°
2026-04-25 02:55 30.98617 177.05119 30199 ft 378 kts 291°
2026-04-25 02:55 31.00451 176.99381 30202 ft 378 kts 291°
2026-04-25 02:56 31.02291 176.93611 30200 ft 378 kts 291°
2026-04-25 02:56 31.04123 176.87856 30202 ft 379 kts 291°
2026-04-25 02:57 31.05954 176.82097 30203 ft 379 kts 291°
2026-04-25 02:57 31.07782 176.76336 30202 ft 379 kts 291°
2026-04-25 02:58 31.09598 176.70602 30202 ft 379 kts 291°
2026-04-25 02:58 31.11434 176.64792 30198 ft 380 kts 291°
2026-04-25 02:59 31.13258 176.59013 30198 ft 380 kts 291°
2026-04-25 02:59 31.15076 176.53241 30200 ft 380 kts 291°
2026-04-25 03:00 31.16897 176.47451 30198 ft 380 kts 291°
2026-04-25 03:00 31.18715 176.41658 30198 ft 380 kts 290°
2026-04-25 03:01 31.20530 176.35864 30199 ft 380 kts 290°
2026-04-25 03:01 31.22339 176.30079 30199 ft 380 kts 290°
2026-04-25 03:02 31.24144 176.24299 30199 ft 380 kts 290°
2026-04-25 03:02 31.25946 176.18514 30195 ft 379 kts 290°
2026-04-25 03:03 31.27748 176.12722 30196 ft 379 kts 290°
2026-04-25 03:03 31.29543 176.06939 30194 ft 379 kts 290°
2026-04-25 03:04 31.31340 176.01140 30194 ft 378 kts 290°
2026-04-25 03:04 31.33126 175.95365 30196 ft 378 kts 290°
2026-04-25 03:05 31.35805 175.86685 30201 ft 378 kts 290°
2026-04-25 03:05 31.37584 175.80908 30194 ft 378 kts 290°
2026-04-25 03:06 31.39362 175.75123 30190 ft 378 kts 290°
2026-04-25 03:06 31.41138 175.69334 30189 ft 378 kts 290°
2026-04-25 03:07 31.42908 175.63553 30186 ft 378 kts 290°
2026-04-25 03:07 31.44676 175.57770 30185 ft 378 kts 290°
2026-04-25 03:08 31.46455 175.51939 30184 ft 378 kts 290°
2026-04-25 03:08 31.48218 175.46149 30185 ft 378 kts 290°
2026-04-25 03:09 31.49982 175.40347 30183 ft 378 kts 290°
2026-04-25 03:09 31.51742 175.34544 30181 ft 378 kts 290°
2026-04-25 03:10 31.53495 175.28755 30182 ft 378 kts 290°
2026-04-25 03:10 31.55249 175.22952 30183 ft 378 kts 290°
2026-04-25 03:11 31.57000 175.17148 30183 ft 378 kts 290°
2026-04-25 03:11 31.58753 175.11329 30178 ft 378 kts 290°
2026-04-25 03:12 31.60499 175.05519 30179 ft 378 kts 290°
2026-04-25 03:12 31.62242 174.99708 30180 ft 378 kts 289°
2026-04-25 03:13 31.63985 174.93887 30177 ft 378 kts 289°
2026-04-25 03:13 31.65722 174.88075 30175 ft 378 kts 289°
2026-04-25 03:14 31.67458 174.82256 30178 ft 378 kts 289°
2026-04-25 03:14 31.69201 174.76401 30178 ft 378 kts 289°
2026-04-25 03:15 31.70933 174.70573 30175 ft 378 kts 289°
2026-04-25 03:15 31.72659 174.64755 30175 ft 378 kts 289°
2026-04-25 03:16 31.74382 174.58933 30174 ft 378 kts 289°
2026-04-25 03:16 31.76102 174.53111 30174 ft 378 kts 289°
2026-04-25 03:17 31.77818 174.47292 30171 ft 377 kts 289°
2026-04-25 03:17 31.79534 174.41465 30170 ft 377 kts 289°
2026-04-25 03:18 31.81245 174.35640 30168 ft 377 kts 289°
2026-04-25 03:18 31.82964 174.29777 30169 ft 377 kts 288°
2026-04-25 03:19 31.84666 174.23960 30170 ft 377 kts 288°
2026-04-25 03:19 31.86366 174.18140 30170 ft 376 kts 288°
2026-04-25 03:20 31.88064 174.12318 30168 ft 376 kts 288°
2026-04-25 03:20 31.89757 174.06500 30166 ft 376 kts 288°
2026-04-25 03:21 31.91444 174.00687 30166 ft 375 kts 288°
2026-04-25 03:21 31.93126 173.94886 30166 ft 375 kts 288°
2026-04-25 03:22 31.94803 173.89087 30164 ft 375 kts 288°
2026-04-25 03:22 31.96477 173.83289 30162 ft 374 kts 288°
2026-04-25 03:23 31.98146 173.77497 30162 ft 374 kts 288°
2026-04-25 03:23 31.99824 173.71664 30159 ft 374 kts 288°
2026-04-25 03:24 32.01481 173.65891 30161 ft 373 kts 288°
2026-04-25 03:24 32.03137 173.60110 30159 ft 373 kts 288°
2026-04-25 03:25 32.04796 173.54308 30157 ft 372 kts 288°
2026-04-25 03:25 32.06441 173.48544 30157 ft 372 kts 288°
2026-04-25 03:26 32.08081 173.42786 30156 ft 371 kts 288°
2026-04-25 03:26 32.09446 173.37985 30157 ft 370 kts 287°
2026-04-25 03:27 32.11077 173.32237 30154 ft 369 kts 287°
2026-04-25 03:27 32.12705 173.26490 30155 ft 369 kts 287°
2026-04-25 03:28 32.14328 173.20748 30153 ft 368 kts 287°
2026-04-25 03:28 32.15940 173.15035 30152 ft 368 kts 287°
2026-04-25 03:29 32.17549 173.09320 30153 ft 367 kts 287°
2026-04-25 03:29 32.19162 173.03581 30151 ft 367 kts 287°
2026-04-25 03:30 32.20763 172.97874 30152 ft 367 kts 287°
2026-04-25 03:30 32.22357 172.92180 30144 ft 367 kts 287°
2026-04-25 03:31 32.23963 172.86432 30151 ft 367 kts 287°
2026-04-25 03:31 32.25554 172.80725 30148 ft 366 kts 287°
2026-04-25 03:32 32.27145 172.75010 30146 ft 366 kts 287°
2026-04-25 03:32 32.28725 172.69321 30141 ft 366 kts 287°
2026-04-25 03:33 32.30314 172.63587 30142 ft 366 kts 287°
2026-04-25 03:33 32.31894 172.57875 30139 ft 366 kts 287°
2026-04-25 03:34 32.33469 172.52173 30137 ft 366 kts 287°
2026-04-25 03:34 32.35047 172.46445 30138 ft 366 kts 287°
2026-04-25 03:35 32.36620 172.40727 30136 ft 366 kts 287°
2026-04-25 03:35 32.38195 172.34989 30137 ft 366 kts 287°
2026-04-25 03:36 32.39760 172.29274 30135 ft 366 kts 287°
2026-04-25 03:36 32.41328 172.23538 30132 ft 366 kts 287°
2026-04-25 03:37 32.42901 172.17772 30136 ft 366 kts 286°
2026-04-25 03:37 32.44463 172.12035 30133 ft 366 kts 286°
2026-04-25 03:38 32.46018 172.06313 30127 ft 367 kts 286°
2026-04-25 03:38 32.47575 172.00573 30134 ft 367 kts 286°
2026-04-25 03:39 32.49131 171.94822 30129 ft 367 kts 286°
2026-04-25 03:39 32.50687 171.89063 30128 ft 367 kts 286°
2026-04-25 03:40 32.52237 171.83311 30128 ft 367 kts 286°
2026-04-25 03:40 32.53786 171.77552 30130 ft 367 kts 286°
2026-04-25 03:41 32.55335 171.71781 30127 ft 367 kts 285°
2026-04-25 03:41 32.56878 171.66024 30127 ft 367 kts 285°
2026-04-25 03:42 32.58416 171.60270 30123 ft 367 kts 285°
2026-04-25 03:42 32.59966 171.54461 30122 ft 367 kts 285°
2026-04-25 03:43 32.61493 171.48724 30119 ft 367 kts 285°
2026-04-25 03:43 32.63024 171.42960 30119 ft 367 kts 285°
2026-04-25 03:44 32.64552 171.37199 30119 ft 367 kts 285°
2026-04-25 03:44 32.66079 171.31428 30121 ft 367 kts 285°
2026-04-25 03:45 32.67602 171.25660 30122 ft 366 kts 285°
2026-04-25 03:45 32.69122 171.19891 30119 ft 366 kts 285°
2026-04-25 03:46 32.70641 171.14116 30116 ft 366 kts 285°
2026-04-25 03:46 32.72156 171.08343 30110 ft 366 kts 285°
2026-04-25 03:47 32.73662 171.02590 30115 ft 365 kts 285°
2026-04-25 03:47 32.75175 170.96800 30108 ft 365 kts 284°
2026-04-25 03:48 32.76676 170.91047 30114 ft 364 kts 284°
2026-04-25 03:48 32.78169 170.85308 30115 ft 364 kts 284°
2026-04-25 03:49 32.79659 170.79569 30113 ft 363 kts 284°
2026-04-25 03:49 32.81143 170.73842 30118 ft 362 kts 284°
2026-04-25 03:50 32.82621 170.68127 30106 ft 362 kts 284°
2026-04-25 03:50 32.84094 170.62420 30108 ft 361 kts 284°
2026-04-25 03:51 32.85561 170.56722 30111 ft 361 kts 284°
2026-04-25 03:51 32.87035 170.50987 30114 ft 360 kts 284°
2026-04-25 03:52 32.88489 170.45319 30103 ft 360 kts 284°
2026-04-25 03:52 32.89939 170.39650 30107 ft 359 kts 284°
2026-04-25 03:53 32.91394 170.33954 30099 ft 358 kts 284°
2026-04-25 03:53 32.92837 170.28293 30097 ft 357 kts 284°
2026-04-25 03:54 32.94273 170.22644 30100 ft 357 kts 284°
2026-04-25 03:54 32.95706 170.16996 30098 ft 356 kts 284°
2026-04-25 03:55 32.97131 170.11370 30094 ft 355 kts 284°
2026-04-25 03:55 32.98551 170.05751 30094 ft 355 kts 284°
2026-04-25 03:56 32.99969 170.00129 30090 ft 355 kts 284°
2026-04-25 03:56 33.01361 169.94499 30093 ft 354 kts 283°
2026-04-25 03:57 33.02738 169.88862 30091 ft 354 kts 283°
2026-04-25 03:57 33.04111 169.83233 30091 ft 354 kts 283°
2026-04-25 03:58 33.05489 169.77576 30085 ft 354 kts 283°
2026-04-25 03:58 33.06857 169.71956 30081 ft 354 kts 283°
2026-04-25 03:59 33.08223 169.66330 30081 ft 354 kts 283°
2026-04-25 03:59 33.09584 169.60712 30079 ft 353 kts 283°
2026-04-25 04:00 33.10949 169.55067 30077 ft 353 kts 283°
2026-04-25 04:00 33.12299 169.49471 30077 ft 353 kts 282°
2026-04-25 04:01 33.13651 169.43857 30073 ft 353 kts 282°
2026-04-25 04:01 33.15009 169.38204 30074 ft 352 kts 282°
2026-04-25 04:02 33.16355 169.32590 30070 ft 352 kts 282°
2026-04-25 04:02 33.17688 169.27014 30073 ft 351 kts 282°
2026-04-25 04:03 33.19028 169.21402 30070 ft 351 kts 282°
2026-04-25 04:03 33.20369 169.15771 30068 ft 350 kts 282°
2026-04-25 04:04 33.21693 169.10198 30060 ft 349 kts 282°
2026-04-25 04:04 33.23012 169.04636 30068 ft 349 kts 282°
2026-04-25 04:05 33.24336 168.99038 30068 ft 349 kts 282°
2026-04-25 04:05 33.25644 168.93496 30065 ft 349 kts 282°
2026-04-25 04:06 33.26963 168.87898 30063 ft 349 kts 282°
2026-04-25 04:06 33.28268 168.82344 30062 ft 348 kts 282°
2026-04-25 04:07 33.29575 168.76773 30065 ft 347 kts 282°
2026-04-25 04:07 33.30874 168.71222 30065 ft 347 kts 282°
2026-04-25 04:08 33.32168 168.65680 30065 ft 346 kts 282°
2026-04-25 04:08 33.33465 168.60112 30062 ft 346 kts 282°
2026-04-25 04:09 33.34752 168.54578 30055 ft 345 kts 282°
2026-04-25 04:09 33.36033 168.49055 30057 ft 345 kts 282°
2026-04-25 04:10 33.37309 168.43539 30054 ft 344 kts 282°
2026-04-25 04:10 33.38583 168.38022 30049 ft 344 kts 282°
2026-04-25 04:11 33.40484 168.29771 30050 ft 343 kts 282°
2026-04-25 04:12 33.41746 168.24274 30053 ft 343 kts 282°
2026-04-25 04:12 33.43006 168.18777 30050 ft 342 kts 282°
2026-04-25 04:13 33.44268 168.13255 30055 ft 342 kts 282°
2026-04-25 04:13 33.45520 168.07771 30045 ft 341 kts 282°
2026-04-25 04:14 33.46758 168.02329 30048 ft 341 kts 282°
2026-04-25 04:14 33.48001 167.96858 30046 ft 340 kts 282°
2026-04-25 04:15 33.49246 167.91363 30043 ft 340 kts 282°
2026-04-25 04:15 33.50473 167.85936 30037 ft 339 kts 281°
2026-04-25 04:16 33.51709 167.80460 30036 ft 339 kts 281°
2026-04-25 04:16 33.52933 167.75022 30034 ft 338 kts 281°
2026-04-25 04:17 33.54151 167.69601 30033 ft 338 kts 281°
2026-04-25 04:17 33.55374 167.64142 30034 ft 337 kts 281°
2026-04-25 04:18 33.56587 167.58720 30033 ft 337 kts 281°
2026-04-25 04:18 33.57796 167.53301 30028 ft 337 kts 281°
2026-04-25 04:19 33.59000 167.47889 30031 ft 337 kts 281°
2026-04-25 04:19 33.60213 167.42431 30027 ft 337 kts 281°
2026-04-25 04:20 33.61412 167.37020 30029 ft 336 kts 281°
2026-04-25 04:20 33.62414 167.32491 30024 ft 336 kts 281°
2026-04-25 04:21 33.63801 167.26202 30021 ft 336 kts 281°
2026-04-25 04:21 33.64994 167.20782 30017 ft 336 kts 281°
2026-04-25 04:22 33.65990 167.16249 30018 ft 336 kts 281°
2026-04-25 04:22 33.67176 167.10838 30018 ft 336 kts 281°
2026-04-25 04:23 33.68367 167.05395 30015 ft 335 kts 281°
2026-04-25 04:23 33.69547 166.99989 30012 ft 335 kts 281°
2026-04-25 04:24 33.70724 166.94580 30010 ft 335 kts 281°
2026-04-25 04:24 33.71896 166.89186 30008 ft 335 kts 281°
2026-04-25 04:25 33.73065 166.83793 30020 ft 334 kts 281°
2026-04-25 04:25 33.74239 166.78366 30010 ft 334 kts 281°
2026-04-25 04:26 33.75404 166.72966 30002 ft 334 kts 281°
2026-04-25 04:26 33.76560 166.67592 30012 ft 334 kts 281°
2026-04-25 04:27 33.77720 166.62194 30002 ft 334 kts 281°
2026-04-25 04:27 33.78882 166.56767 30001 ft 334 kts 281°
2026-04-25 04:28 33.80034 166.51378 29997 ft 333 kts 281°
2026-04-25 04:28 33.81182 166.45997 29994 ft 333 kts 281°
2026-04-25 04:29 33.82329 166.40609 29997 ft 333 kts 281°
2026-04-25 04:29 33.83479 166.35192 29994 ft 333 kts 281°
2026-04-25 04:30 33.84612 166.29840 29994 ft 332 kts 281°
2026-04-25 04:30 33.85755 166.24431 29992 ft 332 kts 281°
2026-04-25 04:31 33.86888 166.19058 29994 ft 332 kts 281°
2026-04-25 04:31 33.88019 166.13683 29987 ft 331 kts 281°
2026-04-25 04:32 33.89143 166.08327 29986 ft 331 kts 281°
2026-04-25 04:32 33.90264 166.02971 29983 ft 330 kts 281°
2026-04-25 04:33 33.91382 165.97620 29985 ft 330 kts 281°
2026-04-25 04:33 33.92502 165.92241 29986 ft 329 kts 281°
2026-04-25 04:34 33.93611 165.86909 29988 ft 329 kts 281°
2026-04-25 04:34 33.94716 165.81583 29978 ft 328 kts 281°
2026-04-25 04:35 33.95814 165.76277 29985 ft 327 kts 281°
2026-04-25 04:35 33.96916 165.70938 29977 ft 327 kts 281°
2026-04-25 04:36 33.98007 165.65639 29977 ft 326 kts 281°
2026-04-25 04:36 33.99096 165.60342 29979 ft 326 kts 281°
2026-04-25 04:37 34.00183 165.55039 29972 ft 325 kts 281°
2026-04-25 04:37 34.01263 165.49754 29971 ft 325 kts 281°
2026-04-25 04:38 34.02343 165.44462 29967 ft 325 kts 281°
2026-04-25 04:38 34.03419 165.39176 29971 ft 325 kts 281°
2026-04-25 04:39 34.04494 165.33883 29971 ft 325 kts 281°
2026-04-25 04:39 34.05567 165.28588 29967 ft 325 kts 281°
2026-04-25 04:40 34.06639 165.23280 29969 ft 326 kts 281°
2026-04-25 04:40 34.07709 165.17975 29964 ft 326 kts 281°
2026-04-25 04:41 34.08777 165.12664 29961 ft 326 kts 281°
2026-04-25 04:41 34.09845 165.07343 29959 ft 326 kts 281°
2026-04-25 04:42 34.10911 165.02029 29962 ft 326 kts 278°
2026-04-25 04:42 34.11969 164.96731 29957 ft 325 kts 278°
2026-04-25 04:43 34.13022 164.91439 29958 ft 324 kts 278°
2026-04-25 04:43 34.14070 164.86166 29954 ft 323 kts 278°
2026-04-25 04:44 34.15114 164.80901 29954 ft 323 kts 278°
2026-04-25 04:44 34.16156 164.75631 29949 ft 323 kts 278°
2026-04-25 04:45 34.17198 164.70349 29953 ft 324 kts 278°
2026-04-25 04:45 34.18238 164.65065 29954 ft 324 kts 278°
2026-04-25 04:46 34.19278 164.59769 29957 ft 325 kts 278°
2026-04-25 04:46 34.20318 164.54461 29949 ft 325 kts 278°
2026-04-25 04:47 34.21356 164.49148 29952 ft 325 kts 278°
2026-04-25 04:47 34.22391 164.43840 29948 ft 325 kts 278°
2026-04-25 04:48 34.23422 164.38536 29947 ft 324 kts 278°
2026-04-25 04:48 34.24452 164.33229 29948 ft 324 kts 278°
2026-04-25 04:49 34.25477 164.27929 29946 ft 324 kts 278°
2026-04-25 04:49 34.26500 164.22631 29945 ft 324 kts 278°
2026-04-25 04:50 34.27520 164.17332 29944 ft 323 kts 278°
2026-04-25 04:50 34.28538 164.12031 29944 ft 324 kts 278°
2026-04-25 04:51 34.29555 164.06724 29937 ft 324 kts 278°
2026-04-25 04:51 34.30567 164.01431 29940 ft 323 kts 277°
2026-04-25 04:52 34.31575 163.96143 29945 ft 322 kts 277°
2026-04-25 04:52 34.32579 163.90862 29938 ft 322 kts 277°
2026-04-25 04:53 34.33580 163.85588 29939 ft 322 kts 277°
2026-04-25 04:53 34.34579 163.80304 29942 ft 322 kts 277°
2026-04-25 04:54 34.35576 163.75021 29939 ft 322 kts 277°
2026-04-25 04:54 34.36572 163.69733 29943 ft 323 kts 277°
2026-04-25 04:55 34.37566 163.64438 29939 ft 323 kts 277°
2026-04-25 04:55 34.38557 163.59149 29949 ft 322 kts 277°
2026-04-25 04:56 34.39544 163.53864 29940 ft 323 kts 277°
2026-04-25 04:56 34.40531 163.48572 29951 ft 323 kts 277°
2026-04-25 04:57 34.41516 163.43271 29936 ft 323 kts 277°
2026-04-25 04:57 34.42504 163.37944 29948 ft 323 kts 277°
2026-04-25 04:58 34.43483 163.32650 29949 ft 322 kts 277°
2026-04-25 04:58 34.44457 163.27371 29945 ft 322 kts 277°
2026-04-25 04:59 34.45428 163.22091 29944 ft 322 kts 277°
2026-04-25 04:59 34.46397 163.16810 29947 ft 322 kts 277°
2026-04-25 05:00 34.47372 163.11487 29951 ft 322 kts 277°
2026-04-25 05:00 34.48336 163.06202 29940 ft 322 kts 277°
2026-04-25 05:01 34.49299 163.00916 29936 ft 322 kts 277°
2026-04-25 05:01 34.50268 162.95581 29958 ft 322 kts 277°
2026-04-25 05:02 34.51224 162.90303 29953 ft 322 kts 277°
2026-04-25 05:02 34.52179 162.85018 29950 ft 321 kts 277°
2026-04-25 05:03 34.53130 162.79742 29947 ft 320 kts 277°
2026-04-25 05:03 34.54083 162.74440 29953 ft 320 kts 277°
2026-04-25 05:04 34.55020 162.69214 29950 ft 318 kts 277°
2026-04-25 05:04 34.55956 162.63983 29960 ft 317 kts 276°
2026-04-25 05:05 34.56886 162.58769 29954 ft 316 kts 276°
2026-04-25 05:05 34.57816 162.53535 29964 ft 316 kts 276°
2026-04-25 05:06 34.58738 162.48335 29956 ft 316 kts 276°
2026-04-25 05:06 34.59657 162.43144 29955 ft 315 kts 276°
2026-04-25 05:07 34.60574 162.37948 29956 ft 314 kts 276°
2026-04-25 05:07 34.61483 162.32784 29962 ft 313 kts 276°
2026-04-25 05:08 34.62393 162.27598 29959 ft 313 kts 276°
2026-04-25 05:08 34.63291 162.22474 29961 ft 312 kts 276°
2026-04-25 05:09 34.64193 162.17307 29963 ft 311 kts 276°
2026-04-25 05:09 34.65085 162.12182 29966 ft 311 kts 276°
2026-04-25 05:10 34.65977 162.07047 29971 ft 311 kts 276°
2026-04-25 05:10 34.66868 162.01904 29967 ft 311 kts 276°
2026-04-25 05:11 34.67754 161.96775 29973 ft 311 kts 276°
2026-04-25 05:11 34.68644 161.91613 29973 ft 311 kts 276°
2026-04-25 05:12 34.69967 161.83912 29974 ft 311 kts 276°
2026-04-25 05:12 34.70848 161.78768 29978 ft 311 kts 276°
2026-04-25 05:13 34.71725 161.73632 29978 ft 311 kts 276°
2026-04-25 05:13 34.72601 161.68488 29978 ft 311 kts 276°
2026-04-25 05:14 34.73473 161.63349 29978 ft 310 kts 276°
2026-04-25 05:15 34.74777 161.55650 29991 ft 310 kts 276°
2026-04-25 05:15 34.75639 161.50538 29989 ft 309 kts 276°
2026-04-25 05:16 34.76359 161.46263 29990 ft 309 kts 276°
2026-04-25 05:16 34.77215 161.41163 29996 ft 309 kts 276°
2026-04-25 05:17 34.78070 161.36057 29994 ft 308 kts 276°
2026-04-25 05:17 34.78927 161.30925 29987 ft 308 kts 276°
2026-04-25 05:18 34.79774 161.25840 29982 ft 307 kts 276°
2026-04-25 05:18 34.80616 161.20767 29982 ft 307 kts 276°
2026-04-25 05:19 34.81456 161.15695 29990 ft 306 kts 276°
2026-04-25 05:19 34.82297 161.10603 29986 ft 306 kts 276°
2026-04-25 05:20 34.83132 161.05534 29998 ft 305 kts 276°
2026-04-25 05:20 34.83963 161.00477 29994 ft 305 kts 276°
2026-04-25 05:21 34.84792 160.95416 29992 ft 305 kts 276°
2026-04-25 05:21 34.85622 160.90332 29999 ft 305 kts 276°
2026-04-25 05:22 34.86444 160.85289 29991 ft 305 kts 276°
2026-04-25 05:22 34.87266 160.80228 29994 ft 304 kts 275°
2026-04-25 05:23 34.88084 160.75183 29998 ft 304 kts 276°
2026-04-25 05:23 34.88898 160.70141 30002 ft 304 kts 275°
2026-04-25 05:24 34.89716 160.65069 30004 ft 304 kts 275°
2026-04-25 05:24 34.90526 160.60028 30002 ft 304 kts 275°
2026-04-25 05:25 34.91333 160.54993 30001 ft 303 kts 275°
2026-04-25 05:25 34.92139 160.49947 30006 ft 303 kts 275°
2026-04-25 05:26 34.92940 160.44922 30005 ft 303 kts 275°
2026-04-25 05:26 34.93745 160.39855 30007 ft 303 kts 275°
2026-04-25 05:27 34.94538 160.34852 30010 ft 302 kts 275°
2026-04-25 05:27 34.95332 160.29828 30009 ft 302 kts 275°
2026-04-25 05:28 34.96129 160.24772 30013 ft 302 kts 275°
2026-04-25 05:28 34.96917 160.19757 30010 ft 302 kts 275°
2026-04-25 05:29 34.97704 160.14734 30014 ft 302 kts 275°
2026-04-25 05:29 34.98490 160.09703 30014 ft 302 kts 275°
2026-04-25 05:30 34.99274 160.04675 30015 ft 302 kts 275°
2026-04-25 05:30 35.00052 159.99664 30018 ft 301 kts 275°
2026-04-25 05:31 35.00779 159.94637 30012 ft 301 kts 274°
2026-04-25 05:31 35.01487 159.89615 30019 ft 301 kts 274°
2026-04-25 05:31 35.01843 159.87089 30018 ft 300 kts 274°
2026-04-25 05:32 35.02194 159.84600 30023 ft 300 kts 274°
2026-04-25 05:32 35.02548 159.82088 30023 ft 300 kts 274°
2026-04-25 05:32 35.02902 159.79574 30020 ft 300 kts 274°
2026-04-25 05:32 35.03257 159.77055 30022 ft 299 kts 274°
2026-04-25 05:33 35.03606 159.74569 30024 ft 299 kts 274°
2026-04-25 05:33 35.03959 159.72056 30025 ft 299 kts 274°
2026-04-25 05:33 35.04307 159.69580 30026 ft 299 kts 274°
2026-04-25 05:33 35.04659 159.67067 30026 ft 298 kts 274°
2026-04-25 05:34 35.05008 159.64569 30025 ft 298 kts 274°
2026-04-25 05:34 35.05353 159.62100 30028 ft 298 kts 274°
2026-04-25 05:34 35.05701 159.59605 30031 ft 297 kts 274°
2026-04-25 05:34 35.06048 159.57112 30029 ft 297 kts 274°
2026-04-25 05:35 35.06391 159.54645 30026 ft 297 kts 274°
2026-04-25 05:35 35.06737 159.52153 30028 ft 296 kts 274°
2026-04-25 05:35 35.07078 159.49693 30028 ft 296 kts 274°
2026-04-25 05:35 35.07422 159.47203 30025 ft 296 kts 274°
2026-04-25 05:36 35.07766 159.44719 30033 ft 296 kts 274°
2026-04-25 05:36 35.08104 159.42267 30033 ft 295 kts 274°
2026-04-25 05:36 35.08445 159.39790 30037 ft 295 kts 274°
2026-04-25 05:36 35.08785 159.37317 30031 ft 295 kts 274°
2026-04-25 05:37 35.09126 159.34834 30035 ft 295 kts 274°
2026-04-25 05:37 35.09460 159.32398 30038 ft 295 kts 274°
2026-04-25 05:37 35.09800 159.29917 30036 ft 295 kts 274°
2026-04-25 05:37 35.10139 159.27436 30036 ft 294 kts 274°
2026-04-25 05:38 35.10473 159.24983 30038 ft 294 kts 274°
2026-04-25 05:38 35.10810 159.22509 30040 ft 294 kts 274°
2026-04-25 05:38 35.11142 159.20070 30040 ft 294 kts 274°
2026-04-25 05:38 35.11477 159.17608 30041 ft 294 kts 274°
2026-04-25 05:39 35.11811 159.15141 30043 ft 294 kts 274°
2026-04-25 05:39 35.12147 159.12663 30045 ft 294 kts 274°
2026-04-25 05:39 35.12476 159.10228 30041 ft 294 kts 274°
2026-04-25 05:39 35.12810 159.07749 30046 ft 294 kts 274°
2026-04-25 05:40 35.13139 159.05309 30042 ft 294 kts 274°
2026-04-25 05:40 35.13472 159.02836 30044 ft 293 kts 274°
2026-04-25 05:40 35.13800 159.00390 30046 ft 293 kts 274°
2026-04-25 05:40 35.14132 158.97919 30046 ft 293 kts 274°
2026-04-25 05:41 35.14462 158.95456 30052 ft 293 kts 274°
2026-04-25 05:41 35.14787 158.93023 30047 ft 293 kts 274°
2026-04-25 05:41 35.15116 158.90561 30046 ft 293 kts 274°
2026-04-25 05:41 35.15445 158.88088 30047 ft 293 kts 274°
2026-04-25 05:42 35.15769 158.85658 30049 ft 293 kts 274°
2026-04-25 05:42 35.16096 158.83194 30047 ft 293 kts 274°
2026-04-25 05:42 35.16418 158.80763 30058 ft 292 kts 274°
2026-04-25 05:42 35.16745 158.78296 30057 ft 292 kts 274°
2026-04-25 05:43 35.17070 158.75837 30060 ft 292 kts 274°
2026-04-25 05:43 35.17391 158.73409 30052 ft 292 kts 274°
2026-04-25 05:43 35.17715 158.70949 30055 ft 292 kts 274°
2026-04-25 05:43 35.18034 158.68523 30061 ft 291 kts 274°
2026-04-25 05:44 35.18356 158.66070 30054 ft 291 kts 274°
2026-04-25 05:44 35.18678 158.63618 30058 ft 291 kts 274°
2026-04-25 05:44 35.18994 158.61205 30058 ft 291 kts 274°
2026-04-25 05:44 35.19313 158.58761 30060 ft 290 kts 274°
2026-04-25 05:45 35.19632 158.56317 30063 ft 290 kts 274°
2026-04-25 05:45 35.19951 158.53874 30063 ft 290 kts 274°
2026-04-25 05:45 35.20265 158.51458 30061 ft 290 kts 274°
2026-04-25 05:45 35.20582 158.49020 30066 ft 289 kts 274°
2026-04-25 05:46 35.20898 158.46580 30061 ft 289 kts 274°
2026-04-25 05:46 35.21210 158.44170 30069 ft 289 kts 274°
2026-04-25 05:46 35.21526 158.41726 30071 ft 289 kts 274°
2026-04-25 05:46 35.21836 158.39320 30071 ft 288 kts 274°
2026-04-25 05:47 35.22147 158.36910 30070 ft 288 kts 274°
2026-04-25 05:47 35.22459 158.34481 30073 ft 288 kts 274°
2026-04-25 05:47 35.22771 158.32053 30073 ft 288 kts 274°
2026-04-25 05:47 35.23078 158.29657 30072 ft 288 kts 274°
2026-04-25 05:48 35.23389 158.27231 30071 ft 288 kts 274°
2026-04-25 05:48 35.23696 158.24829 30072 ft 287 kts 274°
2026-04-25 05:48 35.24006 158.22397 30068 ft 287 kts 274°
2026-04-25 05:48 35.24312 158.19998 30071 ft 287 kts 274°
2026-04-25 05:49 35.24620 158.17575 30072 ft 287 kts 274°
2026-04-25 05:49 35.24923 158.15185 30070 ft 287 kts 274°
2026-04-25 05:49 35.25230 158.12763 30072 ft 287 kts 274°
2026-04-25 05:49 35.25533 158.10370 30071 ft 287 kts 274°
2026-04-25 05:50 35.25840 158.07945 30074 ft 286 kts 274°
2026-04-25 05:50 35.26142 158.05550 30074 ft 286 kts 274°
2026-04-25 05:50 35.26445 158.03142 30074 ft 286 kts 274°
2026-04-25 05:50 35.26748 158.00728 30077 ft 286 kts 274°
2026-04-25 05:51 35.27051 157.98320 30078 ft 286 kts 274°
2026-04-25 05:51 35.27349 157.95938 30077 ft 286 kts 274°
2026-04-25 05:51 35.27651 157.93526 30077 ft 286 kts 274°
2026-04-25 05:51 35.27949 157.91138 30084 ft 285 kts 274°
2026-04-25 05:52 35.28250 157.88721 30079 ft 285 kts 274°
2026-04-25 05:52 35.28546 157.86342 30080 ft 285 kts 274°
2026-04-25 05:52 35.28847 157.83927 30077 ft 285 kts 274°
2026-04-25 05:52 35.29145 157.81520 30080 ft 285 kts 274°
2026-04-25 05:53 35.29439 157.79145 30082 ft 285 kts 274°
2026-04-25 05:53 35.29736 157.76746 30081 ft 284 kts 274°
2026-04-25 05:53 35.30029 157.74369 30079 ft 284 kts 274°
2026-04-25 05:53 35.30326 157.71967 30083 ft 284 kts 274°
2026-04-25 05:54 35.30620 157.69576 30085 ft 284 kts 274°
2026-04-25 05:54 35.30911 157.67208 30083 ft 283 kts 274°
2026-04-25 05:54 35.31497 157.62420 30085 ft 283 kts 274°
2026-04-25 05:55 35.31786 157.60057 30087 ft 283 kts 274°
2026-04-25 05:55 35.32078 157.57661 30087 ft 283 kts 274°
2026-04-25 05:55 35.32365 157.55308 30084 ft 282 kts 274°
2026-04-25 05:55 35.32655 157.52924 30088 ft 282 kts 274°
2026-04-25 05:56 35.32944 157.50545 30088 ft 282 kts 274°
2026-04-25 05:56 35.33233 157.48157 30089 ft 282 kts 274°
2026-04-25 05:56 35.33517 157.45810 30084 ft 282 kts 274°
2026-04-25 05:56 35.33804 157.43438 30088 ft 281 kts 274°
2026-04-25 05:57 35.34091 157.41055 30090 ft 281 kts 274°
2026-04-25 05:57 35.34377 157.38681 30090 ft 281 kts 274°
2026-04-25 05:57 35.34658 157.36339 30092 ft 281 kts 274°
2026-04-25 05:57 35.34943 157.33965 30089 ft 281 kts 274°
2026-04-25 05:58 35.35227 157.31596 30094 ft 281 kts 274°
2026-04-25 05:58 35.35510 157.29225 30099 ft 281 kts 274°
2026-04-25 05:58 35.35793 157.26851 30097 ft 280 kts 274°
2026-04-25 05:58 35.36071 157.24517 30099 ft 280 kts 274°
2026-04-25 05:59 35.36353 157.22149 30096 ft 280 kts 274°
2026-04-25 05:59 35.36635 157.19776 30096 ft 280 kts 274°
2026-04-25 05:59 35.36913 157.17434 30097 ft 280 kts 274°
2026-04-25 05:59 35.37194 157.15076 30096 ft 280 kts 274°
2026-04-25 06:00 35.37474 157.12730 30093 ft 280 kts 274°
2026-04-25 06:00 35.37753 157.10367 30103 ft 279 kts 274°
2026-04-25 06:00 35.38034 157.08001 30101 ft 279 kts 274°
2026-04-25 06:00 35.38310 157.05667 30099 ft 279 kts 274°
2026-04-25 06:01 35.38587 157.03311 30100 ft 279 kts 274°
2026-04-25 06:01 35.38863 157.00954 30101 ft 279 kts 274°
2026-04-25 06:01 35.39136 156.98598 30103 ft 279 kts 274°
2026-04-25 06:01 35.39410 156.96234 30101 ft 278 kts 274°
2026-04-25 06:02 35.39679 156.93912 30102 ft 278 kts 274°
2026-04-25 06:02 35.39951 156.91558 30105 ft 278 kts 274°
2026-04-25 06:02 35.40224 156.89203 30101 ft 278 kts 274°
2026-04-25 06:02 35.40493 156.86881 30103 ft 278 kts 274°
2026-04-25 06:03 35.40764 156.84534 30103 ft 277 kts 274°
2026-04-25 06:03 35.41034 156.82193 30106 ft 277 kts 274°
2026-04-25 06:03 35.41302 156.79868 30105 ft 277 kts 274°
2026-04-25 06:03 35.41573 156.77519 30108 ft 277 kts 274°
2026-04-25 06:04 35.41842 156.75180 30107 ft 276 kts 274°
2026-04-25 06:04 35.42106 156.72872 30105 ft 276 kts 274°
2026-04-25 06:04 35.42374 156.70538 30111 ft 276 kts 274°
2026-04-25 06:04 35.42640 156.68210 30107 ft 275 kts 274°
2026-04-25 06:05 35.42906 156.65881 30109 ft 275 kts 274°
2026-04-25 06:05 35.43170 156.63556 30112 ft 275 kts 274°
2026-04-25 06:05 35.43433 156.61250 30108 ft 275 kts 274°
2026-04-25 06:05 35.43698 156.58913 30108 ft 275 kts 274°
2026-04-25 06:06 35.43958 156.56615 30119 ft 275 kts 274°
2026-04-25 06:06 35.44223 156.54279 30113 ft 275 kts 274°
2026-04-25 06:06 35.44483 156.51975 30117 ft 275 kts 274°
2026-04-25 06:06 35.44745 156.49647 30118 ft 275 kts 274°
2026-04-25 06:07 35.45008 156.47314 30117 ft 275 kts 274°
2026-04-25 06:07 35.45266 156.45015 30121 ft 275 kts 274°
2026-04-25 06:07 35.45528 156.42677 30124 ft 275 kts 274°
2026-04-25 06:07 35.45788 156.40354 30109 ft 275 kts 274°
2026-04-25 06:08 35.46048 156.38031 30120 ft 274 kts 274°
2026-04-25 06:08 35.46303 156.35739 30120 ft 274 kts 274°
2026-04-25 06:08 35.46562 156.33415 30123 ft 274 kts 274°
2026-04-25 06:08 35.46820 156.31096 30122 ft 274 kts 274°
2026-04-25 06:09 35.47078 156.28773 30124 ft 274 kts 274°
2026-04-25 06:09 35.47331 156.26485 30112 ft 274 kts 274°
2026-04-25 06:09 35.47587 156.24169 30119 ft 274 kts 274°
2026-04-25 06:09 35.47843 156.21849 30120 ft 274 kts 274°
2026-04-25 06:10 35.48012 156.20314 30124 ft 273 kts 274°
2026-04-25 06:10 35.48354 156.17213 30117 ft 273 kts 274°
2026-04-25 06:10 35.48605 156.14925 30124 ft 273 kts 274°
2026-04-25 06:10 35.48858 156.12609 30119 ft 273 kts 274°
2026-04-25 06:11 35.49027 156.11071 30128 ft 273 kts 274°
2026-04-25 06:11 35.49362 156.08000 30119 ft 273 kts 274°
2026-04-25 06:11 35.49533 156.06436 30128 ft 273 kts 274°
2026-04-25 06:11 35.49781 156.04150 30128 ft 273 kts 274°
2026-04-25 06:12 35.50032 156.01840 30127 ft 273 kts 274°
2026-04-25 06:12 35.50283 155.99527 30122 ft 273 kts 274°
2026-04-25 06:12 35.50615 155.96462 30122 ft 273 kts 274°
2026-04-25 06:12 35.50781 155.94922 30131 ft 273 kts 274°
2026-04-25 06:13 35.51031 155.92610 30122 ft 273 kts 274°
2026-04-25 06:13 35.51280 155.90294 30131 ft 273 kts 274°
2026-04-25 06:13 35.51526 155.88006 30130 ft 273 kts 274°
2026-04-25 06:14 35.52021 155.83383 30136 ft 272 kts 274°
2026-04-25 06:14 35.52269 155.81066 30129 ft 272 kts 274°
2026-04-25 06:14 35.52512 155.78788 30136 ft 272 kts 274°
2026-04-25 06:14 35.52759 155.76469 30131 ft 272 kts 274°
2026-04-25 06:15 35.53004 155.74161 30133 ft 272 kts 274°
2026-04-25 06:15 35.53246 155.71883 30134 ft 272 kts 274°
2026-04-25 06:15 35.53491 155.69572 30130 ft 272 kts 274°
2026-04-25 06:15 35.53734 155.67265 30138 ft 272 kts 274°
2026-04-25 06:16 35.53978 155.64957 30139 ft 272 kts 274°
2026-04-25 06:16 35.54217 155.62685 30132 ft 272 kts 274°
2026-04-25 06:16 35.54460 155.60377 30134 ft 272 kts 274°
2026-04-25 06:16 35.54702 155.58073 30138 ft 272 kts 274°
2026-04-25 06:17 35.54943 155.55767 30137 ft 271 kts 274°
2026-04-25 06:17 35.55180 155.53496 30137 ft 271 kts 274°
2026-04-25 06:17 35.55421 155.51188 30135 ft 271 kts 274°
2026-04-25 06:17 35.55661 155.48881 30137 ft 271 kts 274°
2026-04-25 06:18 35.55901 155.46574 30138 ft 271 kts 274°
2026-04-25 06:18 35.56137 155.44296 30137 ft 271 kts 274°
2026-04-25 06:18 35.56376 155.41990 30136 ft 271 kts 274°
2026-04-25 06:18 35.56614 155.39690 30139 ft 271 kts 274°
2026-04-25 06:19 35.56848 155.37418 30133 ft 271 kts 274°
2026-04-25 06:19 35.57086 155.35112 30140 ft 271 kts 274°
2026-04-25 06:19 35.57323 155.32807 30141 ft 271 kts 274°
2026-04-25 06:19 35.57556 155.30530 30141 ft 271 kts 274°
2026-04-25 06:20 35.57792 155.28224 30142 ft 271 kts 274°
2026-04-25 06:20 35.58028 155.25917 30140 ft 271 kts 274°
2026-04-25 06:20 35.58263 155.23613 30143 ft 271 kts 274°
2026-04-25 06:20 35.58494 155.21341 30142 ft 271 kts 274°
2026-04-25 06:21 35.58729 155.19031 30140 ft 271 kts 274°
2026-04-25 06:21 35.58962 155.16725 30142 ft 271 kts 274°
2026-04-25 06:21 35.59192 155.14452 30143 ft 271 kts 274°
2026-04-25 06:21 35.59425 155.12147 30147 ft 271 kts 274°
2026-04-25 06:22 35.59657 155.09844 30148 ft 271 kts 274°
2026-04-25 06:22 35.59890 155.07537 30143 ft 271 kts 274°
2026-04-25 06:22 35.60118 155.05259 30147 ft 271 kts 274°
2026-04-25 06:22 35.60349 155.02960 30147 ft 271 kts 274°
2026-04-25 06:23 35.60578 155.00665 30147 ft 271 kts 274°
2026-04-25 06:23 35.60807 154.98368 30146 ft 271 kts 273°
2026-04-25 06:23 35.61036 154.96075 30155 ft 270 kts 273°
2026-04-25 06:23 35.61264 154.93780 30149 ft 270 kts 273°
2026-04-25 06:24 35.61492 154.91479 30150 ft 270 kts 273°
2026-04-25 06:24 35.61719 154.89187 30148 ft 270 kts 273°
2026-04-25 06:24 35.61943 154.86925 30148 ft 270 kts 273°
2026-04-25 06:24 35.62172 154.84600 30150 ft 270 kts 273°
2026-04-25 06:25 35.62395 154.82336 30149 ft 270 kts 273°
2026-04-25 06:25 35.62621 154.80043 30154 ft 270 kts 273°
2026-04-25 06:25 35.62846 154.77744 30149 ft 270 kts 273°
2026-04-25 06:25 35.63071 154.75449 30153 ft 270 kts 273°
2026-04-25 06:26 35.63292 154.73180 30154 ft 270 kts 273°
2026-04-25 06:26 35.63517 154.70878 30149 ft 270 kts 273°
2026-04-25 06:26 35.63740 154.68588 30152 ft 270 kts 273°
2026-04-25 06:26 35.63962 154.66296 30153 ft 270 kts 273°
2026-04-25 06:27 35.64184 154.64006 30153 ft 270 kts 273°
2026-04-25 06:27 35.64406 154.61713 30147 ft 270 kts 273°
2026-04-25 06:27 35.64627 154.59421 30156 ft 270 kts 273°
2026-04-25 06:27 35.64848 154.57123 30158 ft 270 kts 273°
2026-04-25 06:28 35.65069 154.54826 30155 ft 270 kts 273°
2026-04-25 06:28 35.65287 154.52558 30157 ft 270 kts 273°
2026-04-25 06:28 35.65507 154.50256 30153 ft 270 kts 273°
2026-04-25 06:28 35.65727 154.47954 30153 ft 270 kts 273°
2026-04-25 06:29 35.65944 154.45680 30153 ft 270 kts 273°
2026-04-25 06:29 35.66162 154.43384 30154 ft 271 kts 273°
2026-04-25 06:29 35.66381 154.41082 30153 ft 271 kts 273°
2026-04-25 06:29 35.66599 154.38783 30153 ft 271 kts 273°
2026-04-25 06:30 35.66817 154.36472 30151 ft 271 kts 273°
2026-04-25 06:30 35.67032 154.34195 30157 ft 271 kts 273°
2026-04-25 06:30 35.67249 154.31890 30154 ft 271 kts 273°
2026-04-25 06:30 35.67464 154.29599 30158 ft 271 kts 273°
2026-04-25 06:31 35.67681 154.27291 30153 ft 271 kts 273°
2026-04-25 06:31 35.67896 154.24988 30157 ft 271 kts 273°
2026-04-25 06:31 35.68109 154.22706 30155 ft 271 kts 273°
2026-04-25 06:31 35.68325 154.20391 30154 ft 271 kts 273°
2026-04-25 06:32 35.68540 154.18082 30157 ft 271 kts 273°
2026-04-25 06:32 35.68754 154.15778 30155 ft 271 kts 273°
2026-04-25 06:32 35.68964 154.13506 30157 ft 271 kts 273°
2026-04-25 06:32 35.69177 154.11200 30159 ft 271 kts 273°
2026-04-25 06:33 35.69390 154.08891 30158 ft 271 kts 273°
2026-04-25 06:33 35.69602 154.06591 30154 ft 271 kts 273°
2026-04-25 06:33 35.69812 154.04304 30159 ft 271 kts 273°
2026-04-25 06:33 35.70024 154.01994 30156 ft 271 kts 273°
2026-04-25 06:34 35.70235 153.99682 30162 ft 271 kts 273°
2026-04-25 06:34 35.70443 153.97401 30157 ft 271 kts 273°
2026-04-25 06:34 35.70654 153.95086 30160 ft 271 kts 273°
2026-04-25 06:34 35.70862 153.92793 30167 ft 271 kts 273°
2026-04-25 06:35 35.71069 153.90509 30161 ft 271 kts 273°
2026-04-25 06:35 35.71278 153.88198 30161 ft 271 kts 273°
2026-04-25 06:35 35.71487 153.85892 30162 ft 271 kts 273°
2026-04-25 06:35 35.71692 153.83608 30162 ft 271 kts 273°
2026-04-25 06:36 35.71900 153.81300 30160 ft 271 kts 273°
2026-04-25 06:36 35.72107 153.78986 30166 ft 271 kts 273°
2026-04-25 06:36 35.72312 153.76703 30165 ft 271 kts 273°
2026-04-25 06:36 35.72518 153.74398 30163 ft 271 kts 273°
2026-04-25 06:37 35.72723 153.72086 30164 ft 271 kts 273°
2026-04-25 06:37 35.72929 153.69775 30161 ft 271 kts 273°
2026-04-25 06:37 35.73131 153.67497 30163 ft 271 kts 273°
2026-04-25 06:37 35.73335 153.65189 30165 ft 271 kts 273°
2026-04-25 06:38 35.73540 153.62877 30164 ft 271 kts 273°
2026-04-25 06:38 35.73743 153.60564 30163 ft 271 kts 273°
2026-04-25 06:38 35.73944 153.58279 30164 ft 271 kts 273°
2026-04-25 06:38 35.74147 153.55966 30165 ft 271 kts 273°
2026-04-25 06:39 35.74350 153.53649 30166 ft 271 kts 273°
2026-04-25 06:39 35.74552 153.51339 30166 ft 271 kts 273°
2026-04-25 06:39 35.74750 153.49062 30169 ft 271 kts 273°
2026-04-25 06:39 35.74952 153.46748 30165 ft 271 kts 273°
2026-04-25 06:40 35.75152 153.44432 30170 ft 271 kts 273°
2026-04-25 06:40 35.75350 153.42150 30168 ft 271 kts 273°
2026-04-25 06:40 35.75550 153.39839 30168 ft 271 kts 273°
2026-04-25 06:40 35.75749 153.37524 30171 ft 271 kts 273°
2026-04-25 06:41 35.75946 153.35237 30170 ft 271 kts 273°
2026-04-25 06:41 35.76144 153.32925 30166 ft 271 kts 273°
2026-04-25 06:41 35.76342 153.30611 30171 ft 271 kts 273°
2026-04-25 06:41 35.76540 153.28295 30169 ft 271 kts 272°
2026-04-25 06:42 35.76735 153.26007 30170 ft 271 kts 272°
2026-04-25 06:42 35.76932 153.23694 30173 ft 271 kts 272°
2026-04-25 06:42 35.77127 153.21384 30172 ft 271 kts 272°
2026-04-25 06:42 35.77321 153.19096 30173 ft 271 kts 272°
2026-04-25 06:43 35.77517 153.16781 30171 ft 271 kts 272°
2026-04-25 06:43 35.77709 153.14492 30172 ft 271 kts 272°
2026-04-25 06:43 35.77904 153.12176 30172 ft 271 kts 273°
2026-04-25 06:43 35.78096 153.09890 30171 ft 271 kts 273°
2026-04-25 06:44 35.78289 153.07581 30171 ft 270 kts 273°
2026-04-25 06:44 35.78482 153.05266 30170 ft 270 kts 273°
2026-04-25 06:44 35.78672 153.02984 30175 ft 270 kts 273°
2026-04-25 06:44 35.78864 153.00674 30172 ft 270 kts 273°
2026-04-25 06:45 35.79055 152.98366 30172 ft 270 kts 273°
2026-04-25 06:45 35.79244 152.96085 30170 ft 270 kts 273°
2026-04-25 06:45 35.79434 152.93778 30169 ft 270 kts 273°
2026-04-25 06:45 35.79624 152.91473 30174 ft 270 kts 273°
2026-04-25 06:46 35.79813 152.89167 30172 ft 270 kts 273°
2026-04-25 06:46 35.80002 152.86861 30174 ft 270 kts 273°
2026-04-25 06:46 35.80190 152.84561 30175 ft 270 kts 273°
2026-04-25 06:46 35.80375 152.82286 30173 ft 270 kts 273°
2026-04-25 06:47 35.80562 152.79983 30172 ft 270 kts 273°
2026-04-25 06:47 35.80749 152.77683 30178 ft 270 kts 273°
2026-04-25 06:47 35.80936 152.75367 30180 ft 270 kts 273°
2026-04-25 06:47 35.81120 152.73094 30179 ft 270 kts 272°
2026-04-25 06:48 35.81306 152.70785 30178 ft 270 kts 273°
2026-04-25 06:48 35.81491 152.68473 30176 ft 270 kts 273°
2026-04-25 06:48 35.81674 152.66191 30177 ft 270 kts 272°
2026-04-25 06:48 35.81859 152.63879 30174 ft 270 kts 272°
2026-04-25 06:49 35.82041 152.61595 30178 ft 270 kts 272°
2026-04-25 06:49 35.82225 152.59280 30177 ft 270 kts 272°
2026-04-25 06:49 35.82409 152.56973 30176 ft 270 kts 272°
2026-04-25 06:49 35.82589 152.54691 30179 ft 270 kts 272°
2026-04-25 06:50 35.82773 152.52369 30178 ft 270 kts 272°
2026-04-25 06:50 35.82954 152.50068 30180 ft 270 kts 272°
2026-04-25 06:50 35.83133 152.47787 30179 ft 270 kts 272°
2026-04-25 06:50 35.83314 152.45484 30182 ft 270 kts 272°
2026-04-25 06:51 35.83494 152.43174 30180 ft 270 kts 272°
2026-04-25 06:51 35.83672 152.40898 30181 ft 270 kts 272°
2026-04-25 06:51 35.83851 152.38593 30182 ft 270 kts 272°
2026-04-25 06:51 35.84031 152.36282 30178 ft 270 kts 272°
2026-04-25 06:52 35.84207 152.33999 30181 ft 270 kts 272°
2026-04-25 06:52 35.84386 152.31690 30180 ft 270 kts 272°
2026-04-25 06:52 35.84563 152.29391 30179 ft 270 kts 272°
2026-04-25 06:52 35.84741 152.27078 30181 ft 270 kts 272°
2026-04-25 06:53 35.84915 152.24806 30182 ft 270 kts 272°
2026-04-25 06:53 35.85091 152.22498 30177 ft 269 kts 272°
2026-04-25 06:53 35.85267 152.20198 30180 ft 269 kts 272°
2026-04-25 06:53 35.85443 152.17887 30182 ft 269 kts 273°
2026-04-25 06:54 35.85615 152.15617 30180 ft 269 kts 273°
2026-04-25 06:54 35.85790 152.13306 30184 ft 269 kts 273°
2026-04-25 06:54 35.85963 152.11005 30186 ft 269 kts 273°
2026-04-25 06:54 35.86135 152.08728 30186 ft 269 kts 272°
2026-04-25 06:55 35.86307 152.06431 30187 ft 269 kts 272°
2026-04-25 06:55 35.86479 152.04133 30187 ft 269 kts 273°
2026-04-25 06:55 35.86650 152.01856 30187 ft 268 kts 272°
2026-04-25 06:55 35.86821 151.99561 30186 ft 268 kts 272°
2026-04-25 06:56 35.86990 151.97285 30186 ft 268 kts 272°
2026-04-25 06:56 35.87161 151.94981 30185 ft 268 kts 272°
2026-04-25 06:56 35.87330 151.92685 30185 ft 268 kts 272°
2026-04-25 06:56 35.87500 151.90382 30184 ft 268 kts 272°
2026-04-25 06:57 35.87666 151.88123 30186 ft 268 kts 272°
2026-04-25 06:57 35.87835 151.85822 30186 ft 268 kts 272°
2026-04-25 06:57 35.88004 151.83521 30185 ft 268 kts 272°
2026-04-25 06:57 35.88171 151.81227 30191 ft 268 kts 272°
2026-04-25 06:58 35.88336 151.78963 30189 ft 268 kts 272°
2026-04-25 06:58 35.88503 151.76666 30186 ft 268 kts 272°
2026-04-25 06:58 35.88669 151.74367 30189 ft 268 kts 272°
2026-04-25 06:58 35.88835 151.72072 30191 ft 268 kts 272°
2026-04-25 06:59 35.88998 151.69807 30196 ft 268 kts 272°
2026-04-25 06:59 35.89164 151.67499 30193 ft 268 kts 272°
2026-04-25 06:59 35.89326 151.65228 30191 ft 268 kts 272°
2026-04-25 06:59 35.89490 151.62935 30189 ft 268 kts 272°
2026-04-25 07:00 35.89654 151.60637 30192 ft 268 kts 272°
2026-04-25 07:00 35.89817 151.58344 30189 ft 268 kts 272°
2026-04-25 07:00 35.89977 151.56082 30192 ft 268 kts 272°
2026-04-25 07:00 35.90139 151.53789 30193 ft 268 kts 272°
2026-04-25 07:01 35.90301 151.51493 30193 ft 268 kts 272°
2026-04-25 07:01 35.90462 151.49201 30194 ft 268 kts 272°
2026-04-25 07:01 35.90621 151.46933 30194 ft 268 kts 272°
2026-04-25 07:01 35.90782 151.44636 30192 ft 268 kts 272°
2026-04-25 07:02 35.90942 151.42341 30192 ft 268 kts 272°
2026-04-25 07:02 35.91101 151.40046 30194 ft 268 kts 272°
2026-04-25 07:02 35.91258 151.37781 30194 ft 268 kts 272°
2026-04-25 07:02 35.91417 151.35489 30195 ft 268 kts 272°
2026-04-25 07:03 35.91575 151.33195 30194 ft 268 kts 272°
2026-04-25 07:03 35.91733 151.30896 30194 ft 268 kts 272°
2026-04-25 07:03 35.91888 151.28632 30199 ft 268 kts 272°
2026-04-25 07:03 35.92045 151.26336 30198 ft 268 kts 272°
2026-04-25 07:04 35.92202 151.24035 30197 ft 268 kts 272°
2026-04-25 07:04 35.92356 151.21765 30198 ft 268 kts 272°
2026-04-25 07:04 35.92511 151.19475 30203 ft 268 kts 272°
2026-04-25 07:04 35.92667 151.17179 30202 ft 268 kts 272°
2026-04-25 07:05 35.92769 151.15661 30201 ft 268 kts 272°
2026-04-25 07:05 35.92974 151.12615 30201 ft 268 kts 272°
2026-04-25 07:05 35.93076 151.11087 30204 ft 268 kts 272°
2026-04-25 07:05 35.93280 151.08045 30200 ft 268 kts 272°
2026-04-25 07:06 35.93433 151.05747 30205 ft 268 kts 272°
2026-04-25 07:06 35.93534 151.04225 30199 ft 268 kts 272°
2026-04-25 07:06 35.93686 151.01924 30202 ft 268 kts 272°
2026-04-25 07:06 35.93838 150.99628 30202 ft 268 kts 272°
2026-04-25 07:07 35.93990 150.97329 30208 ft 268 kts 272°
2026-04-25 07:07 35.94139 150.95056 30206 ft 268 kts 272°
2026-04-25 07:07 35.94290 150.92763 30204 ft 268 kts 272°
2026-04-25 07:07 35.94440 150.90460 30206 ft 268 kts 272°
2026-04-25 07:08 35.94590 150.88155 30205 ft 268 kts 272°
2026-04-25 07:08 35.94738 150.85881 30203 ft 268 kts 272°
2026-04-25 07:08 35.94887 150.83583 30206 ft 268 kts 272°
2026-04-25 07:08 35.95035 150.81281 30206 ft 268 kts 272°
2026-04-25 07:09 35.95184 150.78980 30206 ft 268 kts 272°
2026-04-25 07:09 35.95331 150.76681 30211 ft 268 kts 272°
2026-04-25 07:09 35.95476 150.74413 30211 ft 268 kts 272°
2026-04-25 07:09 35.95623 150.72119 30210 ft 268 kts 272°
2026-04-25 07:10 35.95770 150.69806 30209 ft 268 kts 272°
2026-04-25 07:10 35.95916 150.67506 30206 ft 268 kts 272°
2026-04-25 07:10 35.96059 150.65238 30209 ft 268 kts 272°
2026-04-25 07:10 35.96204 150.62936 30210 ft 268 kts 272°
2026-04-25 07:11 35.96349 150.60638 30211 ft 268 kts 272°
2026-04-25 07:11 35.96492 150.58343 30206 ft 268 kts 272°
2026-04-25 07:11 35.96634 150.56071 30211 ft 268 kts 272°
2026-04-25 07:11 35.96778 150.53770 30209 ft 268 kts 272°
2026-04-25 07:12 35.96920 150.51475 30209 ft 268 kts 272°
2026-04-25 07:12 35.97203 150.46901 30212 ft 268 kts 271°
2026-04-25 07:12 35.97344 150.44603 30217 ft 268 kts 272°
2026-04-25 07:13 35.97485 150.42303 30218 ft 268 kts 271°
2026-04-25 07:13 35.97626 150.40000 30215 ft 268 kts 271°
2026-04-25 07:13 35.97764 150.37722 30216 ft 268 kts 271°
2026-04-25 07:13 35.97904 150.35422 30215 ft 268 kts 271°
2026-04-25 07:14 35.98042 150.33141 30214 ft 268 kts 271°
2026-04-25 07:14 35.98181 150.30834 30212 ft 268 kts 271°
2026-04-25 07:14 35.98320 150.28535 30217 ft 268 kts 271°
2026-04-25 07:14 35.98458 150.26237 30218 ft 268 kts 271°
2026-04-25 07:15 35.98594 150.23960 30220 ft 268 kts 271°
2026-04-25 07:15 35.98731 150.21660 30219 ft 268 kts 271°
2026-04-25 07:15 35.98867 150.19362 30218 ft 268 kts 271°
2026-04-25 07:15 35.99004 150.17058 30217 ft 268 kts 271°
2026-04-25 07:16 35.99140 150.14746 30218 ft 268 kts 271°
2026-04-25 07:16 35.99274 150.12475 30222 ft 268 kts 271°
2026-04-25 07:16 35.99409 150.10165 30225 ft 268 kts 271°
2026-04-25 07:16 35.99544 150.07863 30219 ft 268 kts 271°
2026-04-25 07:17 35.99678 150.05562 30219 ft 268 kts 271°
2026-04-25 07:17 35.99810 150.03282 30225 ft 268 kts 271°
2026-04-25 07:17 35.99944 150.00976 30221 ft 268 kts 271°
2026-04-25 07:17 36.00035 149.98668 30224 ft 268 kts 269°
2026-04-25 07:18 36.00065 149.96397 30220 ft 268 kts 269°
2026-04-25 07:18 36.00080 149.94083 30220 ft 268 kts 269°
2026-04-25 07:18 36.00092 149.91777 30221 ft 268 kts 269°
2026-04-25 07:18 36.00104 149.89494 30223 ft 268 kts 269°
2026-04-25 07:19 36.00118 149.87184 30224 ft 268 kts 269°
2026-04-25 07:19 36.00132 149.84906 30222 ft 268 kts 269°
2026-04-25 07:19 36.00146 149.82595 30224 ft 268 kts 269°
2026-04-25 07:19 36.00161 149.80278 30222 ft 268 kts 269°
2026-04-25 07:20 36.00176 149.77975 30223 ft 268 kts 269°
2026-04-25 07:20 36.00191 149.75693 30222 ft 269 kts 269°
2026-04-25 07:20 36.00206 149.73382 30223 ft 269 kts 269°
2026-04-25 07:20 36.00220 149.71068 30225 ft 269 kts 269°
2026-04-25 07:21 36.00235 149.68757 30226 ft 269 kts 269°
2026-04-25 07:21 36.00249 149.66463 30227 ft 269 kts 269°
2026-04-25 07:21 36.00262 149.64150 30229 ft 269 kts 269°
2026-04-25 07:21 36.00275 149.61840 30224 ft 269 kts 269°
2026-04-25 07:22 36.00288 149.59548 30224 ft 269 kts 269°
2026-04-25 07:22 36.00301 149.57221 30225 ft 269 kts 269°
2026-04-25 07:22 36.00312 149.54932 30224 ft 269 kts 269°
2026-04-25 07:22 36.00324 149.52619 30226 ft 269 kts 269°
2026-04-25 07:23 36.00335 149.50304 30226 ft 269 kts 269°
2026-04-25 07:23 36.00346 149.47985 30226 ft 269 kts 269°
2026-04-25 07:23 36.00356 149.45699 30233 ft 269 kts 269°
2026-04-25 07:23 36.00366 149.43384 30227 ft 269 kts 269°
2026-04-25 07:24 36.00375 149.41060 30227 ft 269 kts 269°
2026-04-25 07:24 36.00384 149.38778 30228 ft 269 kts 269°
2026-04-25 07:24 36.00392 149.36467 30227 ft 269 kts 268°
2026-04-25 07:24 36.00400 149.34153 30238 ft 269 kts 269°
2026-04-25 07:25 36.00408 149.31836 30228 ft 269 kts 269°
2026-04-25 07:25 36.00415 149.29520 30226 ft 269 kts 268°
2026-04-25 07:25 36.00422 149.27231 30234 ft 269 kts 268°
2026-04-25 07:25 36.00428 149.24911 30233 ft 269 kts 268°
2026-04-25 07:26 36.00434 149.22626 30227 ft 269 kts 268°
2026-04-25 07:26 36.00439 149.20317 30232 ft 269 kts 268°
2026-04-25 07:26 36.00444 149.17995 30232 ft 269 kts 268°
2026-04-25 07:26 36.00449 149.15683 30237 ft 269 kts 268°
2026-04-25 07:27 36.00453 149.13365 30237 ft 269 kts 268°
2026-04-25 07:27 36.00456 149.11075 30235 ft 269 kts 268°
2026-04-25 07:27 36.00459 149.08749 30234 ft 270 kts 268°
2026-04-25 07:27 36.00462 149.06426 30234 ft 270 kts 268°
2026-04-25 07:28 36.00464 149.04133 30233 ft 270 kts 268°
2026-04-25 07:28 36.00466 149.01807 30235 ft 270 kts 268°
2026-04-25 07:28 36.00468 148.99483 30236 ft 270 kts 268°
2026-04-25 07:28 36.00468 148.97157 30237 ft 270 kts 268°
2026-04-25 07:29 36.00469 148.94858 30235 ft 270 kts 268°
2026-04-25 07:29 36.00469 148.92534 30234 ft 270 kts 268°
2026-04-25 07:29 36.00469 148.90209 30238 ft 270 kts 268°
2026-04-25 07:29 36.00468 148.87881 30234 ft 270 kts 268°
2026-04-25 07:30 36.00466 148.85583 30233 ft 270 kts 268°
2026-04-25 07:30 36.00465 148.83257 30238 ft 270 kts 268°
2026-04-25 07:30 36.00463 148.80930 30242 ft 270 kts 268°
2026-04-25 07:30 36.00460 148.78630 30243 ft 270 kts 268°
2026-04-25 07:31 36.00457 148.76300 30237 ft 270 kts 268°
2026-04-25 07:31 36.00453 148.73978 30234 ft 270 kts 268°
2026-04-25 07:31 36.00449 148.71654 30237 ft 270 kts 268°
2026-04-25 07:31 36.00445 148.69332 30233 ft 270 kts 268°
2026-04-25 07:32 36.00440 148.67043 30240 ft 270 kts 268°
2026-04-25 07:32 36.00435 148.64712 30242 ft 270 kts 268°
2026-04-25 07:32 36.00429 148.62381 30243 ft 270 kts 268°
2026-04-25 07:32 36.00423 148.60080 30239 ft 270 kts 268°
2026-04-25 07:33 36.00416 148.57750 30236 ft 270 kts 268°
2026-04-25 07:33 36.00409 148.55424 30241 ft 270 kts 268°
2026-04-25 07:33 36.00402 148.53132 30247 ft 270 kts 268°
2026-04-25 07:33 36.00394 148.50799 30237 ft 270 kts 268°
2026-04-25 07:34 36.00385 148.48466 30239 ft 270 kts 268°
2026-04-25 07:34 36.00376 148.46169 30241 ft 270 kts 268°
2026-04-25 07:34 36.00367 148.43860 30245 ft 270 kts 268°
2026-04-25 07:34 36.00357 148.41532 30250 ft 270 kts 268°
2026-04-25 07:35 36.00347 148.39202 30244 ft 270 kts 268°
2026-04-25 07:35 36.00336 148.36872 30244 ft 270 kts 268°
2026-04-25 07:35 36.00325 148.34572 30241 ft 270 kts 268°
2026-04-25 07:35 36.00314 148.32243 30249 ft 270 kts 268°
2026-04-25 07:36 36.00301 148.29913 30243 ft 270 kts 268°
2026-04-25 07:36 36.00289 148.27616 30249 ft 270 kts 268°
2026-04-25 07:36 36.00276 148.25276 30241 ft 270 kts 268°
2026-04-25 07:36 36.00263 148.22950 30244 ft 270 kts 268°
2026-04-25 07:37 36.00249 148.20651 30240 ft 271 kts 268°
2026-04-25 07:37 36.00235 148.18311 30248 ft 271 kts 268°
2026-04-25 07:37 36.00220 148.16014 30247 ft 271 kts 268°
2026-04-25 07:37 36.00205 148.13676 30244 ft 271 kts 268°
2026-04-25 07:38 36.00189 148.11341 30249 ft 271 kts 268°
2026-04-25 07:38 36.00173 148.09035 30248 ft 271 kts 268°
2026-04-25 07:38 36.00157 148.06698 30246 ft 271 kts 268°
2026-04-25 07:38 36.00140 148.04397 30245 ft 271 kts 268°
2026-04-25 07:39 36.00122 148.02060 30248 ft 271 kts 268°
2026-04-25 07:39 36.00105 147.99757 30249 ft 271 kts 268°
2026-04-25 07:39 36.00086 147.97425 30248 ft 271 kts 268°
2026-04-25 07:39 36.00067 147.95089 30252 ft 271 kts 268°
2026-04-25 07:40 36.00048 147.92752 30249 ft 271 kts 268°
2026-04-25 07:40 36.00028 147.90415 30255 ft 271 kts 268°
2026-04-25 07:40 36.00008 147.88109 30251 ft 271 kts 268°
2026-04-25 07:40 35.99988 147.85778 30251 ft 271 kts 268°
2026-04-25 07:41 35.99967 147.83438 30251 ft 271 kts 268°
2026-04-25 07:41 35.99945 147.81106 30250 ft 271 kts 268°
2026-04-25 07:41 35.99923 147.78769 30256 ft 271 kts 267°
2026-04-25 07:41 35.99901 147.76464 30252 ft 271 kts 267°
2026-04-25 07:42 35.99878 147.74138 30247 ft 271 kts 267°
2026-04-25 07:42 35.99855 147.71804 30252 ft 271 kts 267°
2026-04-25 07:42 35.99831 147.69471 30253 ft 271 kts 267°
2026-04-25 07:42 35.99807 147.67142 30251 ft 271 kts 267°
2026-04-25 07:43 35.99782 147.64812 30258 ft 271 kts 267°
2026-04-25 07:43 35.99757 147.62480 30254 ft 271 kts 267°
2026-04-25 07:43 35.99732 147.60151 30254 ft 271 kts 267°
2026-04-25 07:43 35.99706 147.57842 30261 ft 271 kts 267°
2026-04-25 07:44 35.99679 147.55497 30255 ft 271 kts 267°
2026-04-25 07:44 35.99653 147.53190 30255 ft 271 kts 267°
2026-04-25 07:44 35.99625 147.50845 30258 ft 271 kts 267°
2026-04-25 07:44 35.99598 147.48537 30256 ft 271 kts 267°
2026-04-25 07:45 35.99569 147.46198 30257 ft 271 kts 267°
2026-04-25 07:45 35.99540 147.43861 30258 ft 272 kts 267°
2026-04-25 07:45 35.99511 147.41541 30252 ft 272 kts 267°
2026-04-25 07:45 35.99482 147.39215 30253 ft 272 kts 267°
2026-04-25 07:46 35.99451 147.36861 30254 ft 272 kts 267°
2026-04-25 07:46 35.99421 147.34549 30257 ft 272 kts 267°
2026-04-25 07:46 35.99390 147.32205 30258 ft 272 kts 267°
2026-04-25 07:46 35.99358 147.29859 30258 ft 272 kts 267°
2026-04-25 07:47 35.99327 147.27541 30259 ft 272 kts 267°
2026-04-25 07:47 35.99294 147.25194 30259 ft 272 kts 267°
2026-04-25 07:47 35.99261 147.22855 30256 ft 272 kts 267°
2026-04-25 07:47 35.99228 147.20539 30254 ft 272 kts 267°
2026-04-25 07:48 35.99194 147.18192 30255 ft 272 kts 267°
2026-04-25 07:48 35.99160 147.15869 30257 ft 272 kts 267°
2026-04-25 07:48 35.99125 147.13522 30259 ft 272 kts 267°
2026-04-25 07:48 35.99090 147.11178 30260 ft 272 kts 267°
2026-04-25 07:49 35.99055 147.08868 30259 ft 272 kts 267°
2026-04-25 07:49 35.99019 147.06516 30260 ft 272 kts 267°
2026-04-25 07:49 35.98982 147.04167 30259 ft 272 kts 267°
2026-04-25 07:49 35.98945 147.01849 30260 ft 272 kts 266°
2026-04-25 07:50 35.98908 146.99503 30262 ft 272 kts 266°
2026-04-25 07:50 35.98870 146.97157 30257 ft 272 kts 266°
2026-04-25 07:50 35.98832 146.94836 30262 ft 272 kts 266°
2026-04-25 07:50 35.98793 146.92500 30260 ft 272 kts 266°
2026-04-25 07:51 35.98753 146.90144 30259 ft 272 kts 266°
2026-04-25 07:51 35.98714 146.87830 30265 ft 272 kts 266°
2026-04-25 07:51 35.98674 146.85482 30260 ft 272 kts 266°
2026-04-25 07:51 35.98634 146.83163 30263 ft 272 kts 266°
2026-04-25 07:52 35.98592 146.80802 30263 ft 272 kts 266°
2026-04-25 07:52 35.98551 146.78461 30260 ft 273 kts 266°
2026-04-25 07:52 35.98509 146.76143 30258 ft 273 kts 266°
2026-04-25 07:52 35.98466 146.73793 30261 ft 273 kts 266°
2026-04-25 07:53 35.98423 146.71449 30258 ft 273 kts 266°
2026-04-25 07:53 35.98380 146.69107 30260 ft 273 kts 266°
2026-04-25 07:53 35.98337 146.66794 30262 ft 273 kts 266°
2026-04-25 07:53 35.98292 146.64446 30261 ft 273 kts 266°
2026-04-25 07:54 35.98248 146.62117 30261 ft 273 kts 266°
2026-04-25 07:54 35.98202 146.59767 30261 ft 273 kts 266°
2026-04-25 07:54 35.98157 146.57415 30265 ft 273 kts 266°
2026-04-25 07:54 35.98111 146.55099 30261 ft 273 kts 266°
2026-04-25 07:55 35.98064 146.52755 30267 ft 273 kts 266°
2026-04-25 07:55 35.98017 146.50405 30264 ft 273 kts 266°
2026-04-25 07:55 35.97970 146.48083 30261 ft 273 kts 266°
2026-04-25 07:55 35.97922 146.45733 30266 ft 273 kts 266°
2026-04-25 07:56 35.97874 146.43408 30262 ft 273 kts 266°
2026-04-25 07:56 35.97825 146.41063 30265 ft 273 kts 266°
2026-04-25 07:56 35.97776 146.38731 30264 ft 273 kts 266°
2026-04-25 07:56 35.97726 146.36379 30263 ft 273 kts 266°
2026-04-25 07:57 35.97676 146.34054 30266 ft 273 kts 266°
2026-04-25 07:57 35.97625 146.31704 30265 ft 273 kts 266°
2026-04-25 07:57 35.97575 146.29381 30263 ft 273 kts 266°
2026-04-25 07:57 35.97523 146.27022 30264 ft 273 kts 266°
2026-04-25 07:58 35.97470 146.24680 30262 ft 273 kts 266°
2026-04-25 07:58 35.97418 146.22346 30264 ft 273 kts 266°
2026-04-25 07:58 35.97383 146.20784 30262 ft 273 kts 266°
2026-04-25 07:58 35.97312 146.17669 30264 ft 273 kts 266°
2026-04-25 07:59 35.97258 146.15311 30264 ft 273 kts 266°
2026-04-25 07:59 35.97222 146.13749 30266 ft 273 kts 266°
2026-04-25 07:59 35.97149 146.10629 30265 ft 273 kts 266°
2026-04-25 07:59 35.97112 146.09046 30266 ft 273 kts 266°
2026-04-25 08:00 35.97056 146.06721 30268 ft 273 kts 266°
2026-04-25 08:00 35.97000 146.04367 30262 ft 273 kts 266°
2026-04-25 08:00 35.96944 146.02040 30266 ft 273 kts 266°
2026-04-25 08:00 35.96887 145.99694 30268 ft 273 kts 266°
2026-04-25 08:01 35.96830 145.97347 30264 ft 273 kts 266°
2026-04-25 08:01 35.96773 145.95026 30268 ft 273 kts 266°
2026-04-25 08:01 35.96714 145.92679 30265 ft 273 kts 265°
2026-04-25 08:01 35.96655 145.90328 30269 ft 273 kts 265°
2026-04-25 08:02 35.96596 145.88000 30269 ft 273 kts 266°
2026-04-25 08:02 35.96537 145.85647 30264 ft 273 kts 265°
2026-04-25 08:02 35.96477 145.83327 30265 ft 273 kts 265°
2026-04-25 08:02 35.96416 145.80977 30266 ft 273 kts 265°
2026-04-25 08:03 35.96356 145.78653 30264 ft 273 kts 265°
2026-04-25 08:03 35.96294 145.76295 30265 ft 273 kts 265°
2026-04-25 08:03 35.96233 145.73980 30268 ft 273 kts 265°
2026-04-25 08:03 35.96170 145.71628 30265 ft 273 kts 265°
2026-04-25 08:04 35.96107 145.69281 30264 ft 273 kts 265°
2026-04-25 08:04 35.96045 145.66964 30263 ft 273 kts 265°
2026-04-25 08:04 35.95981 145.64611 30269 ft 272 kts 265°
2026-04-25 08:04 35.95917 145.62273 30269 ft 272 kts 265°
2026-04-25 08:05 35.95853 145.59955 30269 ft 272 kts 265°
2026-04-25 08:05 35.95788 145.57604 30270 ft 272 kts 265°
2026-04-25 08:05 35.95724 145.55289 30266 ft 273 kts 265°
2026-04-25 08:05 35.95658 145.52941 30265 ft 273 kts 265°
2026-04-25 08:06 35.95592 145.50619 30266 ft 273 kts 265°
2026-04-25 08:06 35.95525 145.48273 30265 ft 273 kts 265°
2026-04-25 08:06 35.95476 145.45921 30269 ft 273 kts 266°
2026-04-25 08:06 35.95465 145.43594 30269 ft 273 kts 266°
2026-04-25 08:07 35.95464 145.41235 30271 ft 273 kts 266°
2026-04-25 08:07 35.95463 145.38909 30268 ft 273 kts 266°
2026-04-25 08:07 35.95461 145.36555 30267 ft 273 kts 266°
2026-04-25 08:07 35.95458 145.34228 30269 ft 273 kts 266°
2026-04-25 08:08 35.95454 145.31876 30268 ft 273 kts 266°
2026-04-25 08:08 35.95448 145.29523 30269 ft 273 kts 266°
2026-04-25 08:08 35.95441 145.27200 30267 ft 273 kts 266°
2026-04-25 08:08 35.95434 145.24842 30269 ft 273 kts 266°
2026-04-25 08:09 35.95425 145.22507 30269 ft 273 kts 266°
2026-04-25 08:09 35.95416 145.20161 30270 ft 273 kts 266°
2026-04-25 08:09 35.95407 145.17803 30274 ft 274 kts 266°
2026-04-25 08:09 35.95397 145.15474 30269 ft 274 kts 266°
2026-04-25 08:10 35.95386 145.13118 30267 ft 274 kts 266°
2026-04-25 08:10 35.95375 145.10761 30269 ft 274 kts 266°
2026-04-25 08:10 35.95364 145.08433 30269 ft 274 kts 266°
2026-04-25 08:10 35.95352 145.06070 30269 ft 274 kts 266°
2026-04-25 08:11 35.95339 145.03727 30271 ft 274 kts 266°
2026-04-25 08:11 35.95326 145.01362 30271 ft 274 kts 266°
2026-04-25 08:11 35.95313 144.99026 30273 ft 274 kts 266°
2026-04-25 08:11 35.95299 144.96668 30269 ft 274 kts 266°
2026-04-25 08:12 35.95285 144.94337 30272 ft 274 kts 266°
2026-04-25 08:12 35.95270 144.91974 30270 ft 274 kts 266°
2026-04-25 08:12 35.95254 144.89613 30268 ft 274 kts 266°
2026-04-25 08:12 35.95239 144.87271 30269 ft 274 kts 266°
2026-04-25 08:13 35.95223 144.84927 30271 ft 275 kts 266°
2026-04-25 08:13 35.95206 144.82557 30270 ft 275 kts 266°
2026-04-25 08:13 35.95189 144.80217 30268 ft 275 kts 266°
2026-04-25 08:14 35.95153 144.75482 30272 ft 275 kts 266°
2026-04-25 08:14 35.95134 144.73149 30271 ft 275 kts 266°
2026-04-25 08:14 35.95115 144.70775 30274 ft 275 kts 266°
2026-04-25 08:14 35.95096 144.68408 30276 ft 275 kts 266°
2026-04-25 08:15 35.95076 144.66074 30275 ft 275 kts 266°
2026-04-25 08:15 35.95056 144.63726 30274 ft 275 kts 266°
2026-04-25 08:15 35.95035 144.61355 30276 ft 275 kts 266°
2026-04-25 08:15 35.95013 144.58995 30273 ft 275 kts 266°
2026-04-25 08:16 35.94991 144.56629 30274 ft 275 kts 266°
2026-04-25 08:16 35.94969 144.54293 30273 ft 275 kts 266°
2026-04-25 08:16 35.94946 144.51919 30276 ft 275 kts 266°
2026-04-25 08:16 35.94923 144.49562 30276 ft 275 kts 266°
2026-04-25 08:17 35.94900 144.47200 30272 ft 275 kts 266°
2026-04-25 08:17 35.94875 144.44831 30272 ft 275 kts 266°
2026-04-25 08:17 35.94851 144.42495 30273 ft 275 kts 266°
2026-04-25 08:17 35.94826 144.40125 30274 ft 275 kts 266°
2026-04-25 08:18 35.94800 144.37756 30271 ft 276 kts 266°
2026-04-25 08:18 35.94774 144.35383 30274 ft 276 kts 266°
2026-04-25 08:18 35.94748 144.33040 30272 ft 276 kts 266°
2026-04-25 08:18 35.94721 144.30659 30275 ft 276 kts 266°
2026-04-25 08:19 35.94693 144.28281 30275 ft 276 kts 266°
2026-04-25 08:19 35.94665 144.25940 30276 ft 276 kts 266°
2026-04-25 08:19 35.94637 144.23554 30276 ft 277 kts 266°
2026-04-25 08:19 35.94608 144.21189 30273 ft 277 kts 266°
2026-04-25 08:20 35.94579 144.18805 30275 ft 277 kts 266°
2026-04-25 08:20 35.94549 144.16451 30275 ft 276 kts 266°
2026-04-25 08:20 35.94520 144.14123 30263 ft 266 kts 266°
2026-04-25 08:20 35.94492 144.11840 30266 ft 262 kts 266°
2026-04-25 08:21 35.94463 144.09595 30268 ft 261 kts 266°
2026-04-25 08:21 35.94432 144.07366 30280 ft 262 kts 266°
2026-04-25 08:21 35.94401 144.05100 30281 ft 263 kts 266°
2026-04-25 08:21 35.94370 144.02859 30278 ft 264 kts 266°
2026-04-25 08:22 35.94338 144.00582 30279 ft 265 kts 266°
2026-04-25 08:22 35.94305 143.98304 30273 ft 265 kts 266°
2026-04-25 08:22 35.94273 143.96022 30277 ft 265 kts 266°
2026-04-25 08:22 35.94240 143.93769 30274 ft 265 kts 266°
2026-04-25 08:23 35.94207 143.91490 30274 ft 265 kts 266°
2026-04-25 08:23 35.94173 143.89215 30274 ft 264 kts 266°
2026-04-25 08:23 35.94139 143.86944 30275 ft 264 kts 266°
2026-04-25 08:23 35.94105 143.84680 30277 ft 263 kts 266°
2026-04-25 08:24 35.94070 143.82448 30273 ft 263 kts 266°
2026-04-25 08:24 35.94035 143.80190 30276 ft 262 kts 266°
2026-04-25 08:24 35.94000 143.77934 30278 ft 262 kts 266°
2026-04-25 08:24 35.93964 143.75713 30274 ft 262 kts 266°
2026-04-25 08:25 35.93928 143.73457 30277 ft 262 kts 266°
2026-04-25 08:25 35.93891 143.71200 30273 ft 261 kts 266°
2026-04-25 08:25 35.93854 143.68981 30277 ft 262 kts 266°
2026-04-25 08:25 35.93816 143.66730 30274 ft 262 kts 266°
2026-04-25 08:26 35.93778 143.64477 30276 ft 262 kts 266°
2026-04-25 08:26 35.93740 143.62242 30277 ft 263 kts 266°
2026-04-25 08:26 35.93701 143.59986 30276 ft 263 kts 266°
2026-04-25 08:26 35.93662 143.57726 30275 ft 263 kts 266°
2026-04-25 08:27 35.93622 143.55459 30275 ft 264 kts 266°
2026-04-25 08:27 35.93582 143.53209 30274 ft 264 kts 266°
2026-04-25 08:27 35.93541 143.50935 30278 ft 265 kts 266°
2026-04-25 08:27 35.93499 143.48660 30277 ft 265 kts 266°
2026-04-25 08:28 35.93457 143.46374 30276 ft 265 kts 266°
2026-04-25 08:28 35.93415 143.44121 30272 ft 265 kts 266°
2026-04-25 08:28 35.93373 143.41833 30278 ft 266 kts 266°
2026-04-25 08:28 35.93329 143.39549 30274 ft 266 kts 266°
2026-04-25 08:29 35.93286 143.37290 30274 ft 265 kts 266°
2026-04-25 08:29 35.93242 143.35008 30275 ft 265 kts 266°
2026-04-25 08:29 35.93198 143.32728 30282 ft 265 kts 266°
2026-04-25 08:29 35.93154 143.30452 30276 ft 265 kts 266°
2026-04-25 08:30 35.93109 143.28171 30276 ft 265 kts 266°
2026-04-25 08:30 35.93063 143.25924 30278 ft 265 kts 266°
2026-04-25 08:30 35.93017 143.23636 30275 ft 264 kts 266°
2026-04-25 08:30 35.92984 143.21387 30273 ft 264 kts 266°
2026-04-25 08:31 35.92975 143.19114 30275 ft 264 kts 266°
2026-04-25 08:31 35.92970 143.16848 30276 ft 264 kts 266°
2026-04-25 08:31 35.92965 143.14576 30276 ft 264 kts 266°
2026-04-25 08:31 35.92960 143.12335 30278 ft 264 kts 266°
2026-04-25 08:32 35.92954 143.10070 30274 ft 264 kts 266°
2026-04-25 08:32 35.92946 143.07801 30276 ft 263 kts 266°
2026-04-25 08:32 35.92938 143.05557 30276 ft 263 kts 266°
2026-04-25 08:32 35.92929 143.03289 30276 ft 263 kts 266°
2026-04-25 08:33 35.92919 143.01022 30277 ft 263 kts 266°
2026-04-25 08:33 35.92909 142.98760 30277 ft 263 kts 266°
2026-04-25 08:33 35.92899 142.96523 30272 ft 263 kts 266°
2026-04-25 08:33 35.92888 142.94259 30276 ft 263 kts 266°
2026-04-25 08:34 35.92876 142.92001 30279 ft 263 kts 266°
2026-04-25 08:34 35.92865 142.89767 30277 ft 263 kts 266°
2026-04-25 08:34 35.92852 142.87501 30281 ft 263 kts 266°
2026-04-25 08:34 35.92839 142.85241 30280 ft 263 kts 266°
2026-04-25 08:35 35.92826 142.82981 30277 ft 263 kts 266°
2026-04-25 08:35 35.92812 142.80715 30274 ft 263 kts 266°
2026-04-25 08:35 35.92798 142.78477 30281 ft 263 kts 266°
2026-04-25 08:35 35.92784 142.76208 30278 ft 263 kts 266°
2026-04-25 08:36 35.92769 142.73974 30282 ft 263 kts 266°
2026-04-25 08:36 35.92754 142.71719 30274 ft 262 kts 266°
2026-04-25 08:36 35.92738 142.69464 30282 ft 262 kts 266°
2026-04-25 08:36 35.92722 142.67240 30284 ft 262 kts 266°
2026-04-25 08:37 35.92705 142.64988 30273 ft 262 kts 266°
2026-04-25 08:37 35.92688 142.62732 30274 ft 261 kts 266°
2026-04-25 08:37 35.92671 142.60485 30272 ft 261 kts 266°
2026-04-25 08:37 35.92654 142.58267 30280 ft 261 kts 266°
2026-04-25 08:38 35.92635 142.56012 30273 ft 261 kts 266°
2026-04-25 08:38 35.92617 142.53797 30277 ft 261 kts 266°
2026-04-25 08:38 35.92598 142.51552 30276 ft 261 kts 266°
2026-04-25 08:38 35.92579 142.49311 30283 ft 261 kts 266°
2026-04-25 08:39 35.92560 142.47071 30277 ft 261 kts 266°
2026-04-25 08:39 35.92539 142.44829 30281 ft 261 kts 266°
2026-04-25 08:39 35.92519 142.42617 30276 ft 261 kts 266°
2026-04-25 08:39 35.92499 142.40376 30277 ft 261 kts 266°
2026-04-25 08:40 35.92526 142.38133 30272 ft 261 kts 268°
2026-04-25 08:40 35.92577 142.35911 30277 ft 261 kts 268°
2026-04-25 08:40 35.92632 142.33666 30275 ft 262 kts 268°
2026-04-25 08:40 35.92688 142.31405 30271 ft 262 kts 268°
2026-04-25 08:41 35.92740 142.29167 30276 ft 262 kts 268°
2026-04-25 08:41 35.92792 142.26937 30277 ft 262 kts 268°
2026-04-25 08:41 35.92842 142.24685 30282 ft 261 kts 268°
2026-04-25 08:41 35.92891 142.22439 30273 ft 261 kts 268°
2026-04-25 08:42 35.92939 142.20219 30279 ft 261 kts 268°
2026-04-25 08:42 35.92987 142.17974 30277 ft 261 kts 268°
2026-04-25 08:42 35.93034 142.15729 30274 ft 261 kts 268°
2026-04-25 08:42 35.93080 142.13485 30277 ft 261 kts 268°
2026-04-25 08:43 35.93126 142.11246 30273 ft 261 kts 268°
2026-04-25 08:43 35.93171 142.09006 30278 ft 261 kts 268°
2026-04-25 08:43 35.93215 142.06789 30269 ft 261 kts 268°
2026-04-25 08:43 35.93260 142.04547 30277 ft 261 kts 268°
2026-04-25 08:44 35.93303 142.02307 30271 ft 261 kts 268°
2026-04-25 08:44 35.93347 142.00068 30273 ft 261 kts 268°
2026-04-25 08:44 35.93390 141.97825 30279 ft 261 kts 268°
2026-04-25 08:44 35.93432 141.95605 30281 ft 261 kts 268°
2026-04-25 08:45 35.93474 141.93360 30279 ft 263 kts 268°
2026-04-25 08:45 35.93515 141.91041 30289 ft 275 kts 268°
2026-04-25 08:45 35.93558 141.88646 30283 ft 281 kts 268°
2026-04-25 08:45 35.93602 141.86238 30265 ft 278 kts 268°
2026-04-25 08:46 35.93646 141.83883 30025 ft 279 kts 268°
2026-04-25 08:46 35.93689 141.81502 29626 ft 275 kts 268°
2026-04-25 08:46 35.93731 141.79189 29187 ft 272 kts 268°
2026-04-25 08:46 35.93772 141.76852 28690 ft 271 kts 268°
2026-04-25 08:47 35.93812 141.74530 28218 ft 270 kts 268°
2026-04-25 08:47 35.93851 141.72226 27683 ft 271 kts 268°
2026-04-25 08:47 35.93890 141.69880 27132 ft 273 kts 268°
2026-04-25 08:47 35.93929 141.67516 26628 ft 277 kts 268°
2026-04-25 08:48 35.93968 141.65124 26139 ft 279 kts 268°
2026-04-25 08:48 35.94006 141.62725 25666 ft 289 kts 269°
2026-04-25 08:48 35.94045 141.60192 25169 ft 300 kts 269°
2026-04-25 08:48 35.94086 141.57605 24657 ft 300 kts 269°
2026-04-25 08:49 35.94127 141.55058 24161 ft 300 kts 269°
2026-04-25 08:49 35.94168 141.52475 23611 ft 301 kts 269°
2026-04-25 08:49 35.94208 141.49889 23067 ft 299 kts 269°
2026-04-25 08:49 35.94247 141.47318 22561 ft 297 kts 269°
2026-04-25 08:50 35.94284 141.44795 22075 ft 296 kts 269°
2026-04-25 08:50 35.94321 141.42285 21594 ft 294 kts 270°
2026-04-25 08:50 35.94358 141.39746 21107 ft 294 kts 270°
2026-04-25 08:50 35.94381 141.38078 20780 ft 293 kts 270°
2026-04-25 08:51 35.94428 141.34732 20134 ft 293 kts 270°
2026-04-25 08:51 35.94463 141.32207 19661 ft 293 kts 270°
2026-04-25 08:51 35.94498 141.29687 19178 ft 294 kts 270°
2026-04-25 08:51 35.94532 141.27156 18699 ft 295 kts 270°
2026-04-25 08:52 35.94564 141.24653 18176 ft 295 kts 270°
2026-04-25 08:52 35.94586 141.22933 17832 ft 295 kts 270°
2026-04-25 08:52 35.94605 141.20423 17320 ft 295 kts 270°
2026-04-25 08:52 35.94587 141.17032 16596 ft 298 kts 269°
2026-04-25 08:53 35.94573 141.15336 16267 ft 298 kts 269°
2026-04-25 08:53 35.94550 141.12777 15790 ft 298 kts 270°
2026-04-25 08:53 35.94528 141.10216 15317 ft 298 kts 270°
2026-04-25 08:53 35.94506 141.07641 14846 ft 298 kts 270°
2026-04-25 08:54 35.94485 141.05104 14393 ft 299 kts 270°
2026-04-25 08:54 35.94464 141.02521 13923 ft 299 kts 270°
2026-04-25 08:54 35.94443 140.99990 13508 ft 297 kts 270°
2026-04-25 08:54 35.94422 140.97451 13100 ft 294 kts 270°
2026-04-25 08:55 35.94401 140.94935 12664 ft 293 kts 270°
2026-04-25 08:55 35.94380 140.92419 12229 ft 291 kts 270°
2026-04-25 08:55 35.94358 140.89919 11817 ft 290 kts 270°
2026-04-25 08:55 35.94336 140.87477 11466 ft 286 kts 270°
2026-04-25 08:56 35.94313 140.85050 11275 ft 277 kts 270°
2026-04-25 08:56 35.94291 140.82692 10987 ft 273 kts 270°
2026-04-25 08:56 35.94269 140.80333 10571 ft 275 kts 270°
2026-04-25 08:56 35.94247 140.77983 10241 ft 273 kts 270°
2026-04-25 08:57 35.94223 140.75644 9879 ft 271 kts 270°
2026-04-25 08:57 35.94200 140.73345 9472 ft 271 kts 271°
2026-04-25 08:57 35.94176 140.71028 9113 ft 269 kts 271°
2026-04-25 08:57 35.94151 140.68715 8736 ft 268 kts 271°
2026-04-25 08:58 35.94127 140.66414 8381 ft 267 kts 271°
2026-04-25 08:58 35.94102 140.64118 8019 ft 266 kts 271°
2026-04-25 08:58 35.94077 140.61837 7659 ft 265 kts 271°
2026-04-25 08:58 35.94052 140.59555 7319 ft 265 kts 271°
2026-04-25 08:59 35.94026 140.57315 7007 ft 263 kts 271°
2026-04-25 08:59 35.94000 140.55051 6659 ft 262 kts 271°
2026-04-25 08:59 35.93974 140.52825 6323 ft 261 kts 271°
2026-04-25 08:59 35.93947 140.50594 6005 ft 259 kts 271°
2026-04-25 09:00 35.93920 140.48380 5678 ft 257 kts 271°
2026-04-25 09:00 35.93893 140.46175 5408 ft 254 kts 271°
2026-04-25 09:00 35.93866 140.44032 5303 ft 243 kts 271°
2026-04-25 09:00 35.93841 140.42013 5228 ft 232 kts 271°
2026-04-25 09:01 35.93815 140.40049 5147 ft 223 kts 271°
2026-04-25 09:01 35.93790 140.38183 5040 ft 215 kts 271°
2026-04-25 09:01 35.93766 140.36365 4938 ft 208 kts 271°
2026-04-25 09:01 35.93796 140.34640 4782 ft 197 kts 283°
2026-04-25 09:02 35.94449 140.33210 4399 ft 193 kts 319°
2026-04-25 09:02 35.95637 140.32475 4028 ft 192 kts 349°
2026-04-25 09:02 35.96956 140.32576 3617 ft 195 kts 17°
2026-04-25 09:02 35.98253 140.33077 3313 ft 191 kts 19°
2026-04-25 09:03 35.99464 140.33549 3181 ft 176 kts 19°
2026-04-25 09:03 36.00602 140.33997 2924 ft 169 kts 20°
2026-04-25 09:03 36.01703 140.34429 2695 ft 163 kts 21°
2026-04-25 09:03 36.02793 140.34808 2406 ft 161 kts 19°
2026-04-25 09:04 36.03873 140.35211 2027 ft 163 kts 22°
2026-04-25 09:04 36.04941 140.35665 1699 ft 160 kts 24°
2026-04-25 09:04 36.05976 140.36122 1542 ft 160 kts 24°
2026-04-25 09:04 36.07030 140.36594 1512 ft 159 kts 24°
2026-04-25 09:05 36.08036 140.37043 1490 ft 147 kts 25°
2026-04-25 09:05 36.08934 140.37444 1518 ft 131 kts 25°
2026-04-25 09:05 36.09770 140.37818 1477 ft 125 kts 26°
2026-04-25 09:05 36.10596 140.38190 1353 ft 127 kts 26°
2026-04-25 09:06 36.11419 140.38558 1193 ft 126 kts 25°
2026-04-25 09:06 36.12234 140.38925 1056 ft 123 kts 25°
2026-04-25 09:06 36.13039 140.39283 894 ft 124 kts 22°
2026-04-25 09:06 36.13823 140.39635 736 ft 118 kts 24°
2026-04-25 09:07 36.14599 140.39983 605 ft 119 kts 24°
2026-04-25 09:07 36.15380 140.40334 467 ft 120 kts 25°
2026-04-25 09:07 36.16164 140.40685 313 ft 120 kts 25°
2026-04-25 09:07 36.16947 140.41033 170 ft 122 kts 24°
2026-04-25 09:08 36.17681 140.41374 112 ft 104 kts 22°
2026-04-25 09:08 36.18185 140.41592 114 ft 51 kts 19°
2026-04-25 09:08 36.18450 140.41702 113 ft 30 kts 21°
2026-04-25 09:08 36.18592 140.41764 111 ft 17 kts 12°
2026-04-25 09:09 36.18681 140.41689 112 ft 17 kts 292°
2026-04-25 09:09 36.18656 140.41553 111 ft 18 kts 212°
2026-04-25 09:09 36.18539 140.41499 110 ft 18 kts 200°
2026-04-25 09:09 36.18425 140.41442 111 ft 19 kts 201°
2026-04-25 09:10 36.18211 140.41346 111 ft 41 kts 200°
2026-04-25 09:10 36.17971 140.41238 111 ft 31 kts 198°
2026-04-25 09:10 36.17787 140.41155 111 ft 24 kts 201°
2026-04-25 09:10 36.17740 140.41000 113 ft 21 kts 289°
2026-04-25 09:11 36.17754 140.40840 110 ft 1 kts 210°
2026-04-25 09:11 36.17745 140.40833 113 ft 3 kts 210°